Observation data for Crowell on 01/12/2018      Previous  Date  Next       Current Mesonet Observations  Soil Data  Daily Summary Page  Observations in Plain Language
KCR1 120600Z 01009KT M02/M10 A3033 RMK A01 T10241104  RH  054%=      5-min Rain = 0
KCR1 120601Z 01009KT M02/M11 A3033 RMK A01 T10241105  RH  054%=      5-min Rain = 0
KCR1 120602Z 01009KT M03/M11 A3033 RMK A01 T10251105  RH  054%=      5-min Rain = 0
KCR1 120603Z 01009KT M03/M11 A3034 RMK A01 T10251105  RH  054%=      5-min Rain = 0
KCR1 120604Z 01009KT M03/M10 A3034 RMK A01 T10251104  RH  054%=      5-min Rain = 0
KCR1 120605Z 00009KT M03/M11 A3034 RMK A01 T10251105  RH  054%=      5-min Rain = 0
KCR1 120606Z 00008KT M03/M11 A3034 RMK A01 T10251105  RH  054%=      5-min Rain = 0
KCR1 120607Z 00008KT M02/M11 A3034 RMK A01 T10241105  RH  054%=      5-min Rain = 0
KCR1 120608Z 01008KT M03/M11 A3034 RMK A01 T10251105  RH  054%=      5-min Rain = 0
KCR1 120609Z 01008KT M03/M10 A3034 RMK A01 T10251104  RH  054%=      5-min Rain = 0
KCR1 120610Z 01009KT M03/M11 A3034 RMK A01 T10251105  RH  054%=      5-min Rain = 0
KCR1 120611Z 01009KT M03/M11 A3034 RMK A01 T10251105  RH  054%=      5-min Rain = 0
KCR1 120612Z 01008KT M03/M11 A3034 RMK A01 T10251105  RH  054%=      5-min Rain = 0
KCR1 120613Z 01008KT M02/M11 A3034 RMK A01 T10241105  RH  054%=      5-min Rain = 0
KCR1 120614Z 01008KT M03/M11 A3033 RMK A01 T10251106  RH  054%=      5-min Rain = 0
KCR1 120615Z 01008KT M03/M11 A3033 RMK A01 T10261106  RH  054%=      5-min Rain = 0
KCR1 120616Z 02009KT M03/M11 A3033 RMK A01 T10271107  RH  054%=      5-min Rain = 0
KCR1 120617Z 02009KT M03/M11 A3033 RMK A01 T10271107  RH  054%=      5-min Rain = 0
KCR1 120618Z 02009KT M03/M11 A3033 RMK A01 T10271106  RH  055%=      5-min Rain = 0
KCR1 120619Z 02009KT M03/M11 A3033 RMK A01 T10271107  RH  054%=      5-min Rain = 0
KCR1 120620Z 02010KT M03/M11 A3033 RMK A01 T10281107  RH  054%=      5-min Rain = 0
KCR1 120621Z 02009KT M03/M11 A3032 RMK A01 T10271107  RH  054%=      5-min Rain = 0
KCR1 120622Z 02010KT M03/M11 A3032 RMK A01 T10281107  RH  054%=      5-min Rain = 0
KCR1 120623Z 02010KT M03/M11 A3032 RMK A01 T10281107  RH  054%=      5-min Rain = 0
KCR1 120624Z 02010KT M03/M11 A3032 RMK A01 T10281107  RH  055%=      5-min Rain = 0
KCR1 120625Z 01009KT M03/M11 A3032 RMK A01 T10281107  RH  055%=      5-min Rain = 0
KCR1 120626Z 01010KT M03/M11 A3032 RMK A01 T10291108  RH  055%=      5-min Rain = 0
KCR1 120627Z 01011KT M03/M11 A3032 RMK A01 T10291108  RH  055%=      5-min Rain = 0
KCR1 120628Z 01010KT M03/M11 A3032 RMK A01 T10281108  RH  054%=      5-min Rain = 0
KCR1 120629Z 01010KT M03/M11 A3032 RMK A01 T10281108  RH  054%=      5-min Rain = 0
KCR1 120630Z 01009KT M03/M11 A3032 RMK A01 T10281108  RH  054%=      5-min Rain = 0
KCR1 120631Z 01010KT M03/M11 A3032 RMK A01 T10281108  RH  054%=      5-min Rain = 0
KCR1 120632Z 01010KT M03/M11 A3032 RMK A01 T10281108  RH  054%=      5-min Rain = 0
KCR1 120633Z 01009KT M03/M11 A3032 RMK A01 T10281109  RH  054%=      5-min Rain = 0
KCR1 120634Z 01009KT M03/M11 A3032 RMK A01 T10291109  RH  054%=      5-min Rain = 0
KCR1 120635Z 01009KT M03/M11 A3032 RMK A01 T10291109  RH  054%=      5-min Rain = 0
KCR1 120636Z 01009KT M03/M11 A3032 RMK A01 T10301109  RH  054%=      5-min Rain = 0
KCR1 120637Z 01009KT M03/M11 A3032 RMK A01 T10301110  RH  054%=      5-min Rain = 0
KCR1 120638Z 01008KT M03/M11 A3033 RMK A01 T10311109  RH  055%=      5-min Rain = 0
KCR1 120639Z 01008KT M03/M11 A3033 RMK A01 T10311109  RH  055%=      5-min Rain = 0
KCR1 120640Z 01008KT M03/M11 A3033 RMK A01 T10311109  RH  055%=      5-min Rain = 0
KCR1 120641Z 01008KT M03/M11 A3033 RMK A01 T10321110  RH  055%=      5-min Rain = 0
KCR1 120642Z 01008KT M03/M11 A3032 RMK A01 T10331110  RH  055%=      5-min Rain = 0
KCR1 120643Z 01009KT M03/M11 A3032 RMK A01 T10341110  RH  055%=      5-min Rain = 0
KCR1 120644Z 01009KT M03/M11 A3032 RMK A01 T10341110  RH  056%=      5-min Rain = 0
KCR1 120645Z 01009KT M04/M11 A3032 RMK A01 T10351110  RH  056%=      5-min Rain = 0
KCR1 120646Z 01009KT M04/M11 A3032 RMK A01 T10351110  RH  056%=      5-min Rain = 0
KCR1 120647Z 01010KT M04/M11 A3032 RMK A01 T10351110  RH  056%=      5-min Rain = 0
KCR1 120648Z 01009KT M04/M11 A3032 RMK A01 T10351110  RH  056%=      5-min Rain = 0
KCR1 120649Z 01009KT M04/M11 A3032 RMK A01 T10351110  RH  056%=      5-min Rain = 0
KCR1 120650Z 01009KT M04/M11 A3032 RMK A01 T10351110  RH  056%=      5-min Rain = 0
KCR1 120651Z 01010KT M04/M11 A3032 RMK A01 T10361110  RH  056%=      5-min Rain = 0
KCR1 120652Z 01010KT M04/M11 A3032 RMK A01 T10361110  RH  056%=      5-min Rain = 0
KCR1 120653Z 02010KT M04/M11 A3032 RMK A01 T10361110  RH  056%=      5-min Rain = 0
KCR1 120654Z 02010KT M04/M11 A3032 RMK A01 T10361110  RH  056%=      5-min Rain = 0
KCR1 120655Z 02010KT M04/M11 A3032 RMK A01 T10361110  RH  056%=      5-min Rain = 0
KCR1 120656Z 02010KT M04/M11 A3032 RMK A01 T10361110  RH  056%=      5-min Rain = 0
KCR1 120657Z 01010KT M04/M11 A3032 RMK A01 T10361110  RH  056%=      5-min Rain = 0
KCR1 120658Z 01010KT M04/M11 A3032 RMK A01 T10361110  RH  056%=      5-min Rain = 0
KCR1 120659Z 01009KT M04/M11 A3032 RMK A01 T10361110  RH  057%=      5-min Rain = 0
KCR1 120700Z 01009KT M04/M11 A3032 RMK A01 T10371110  RH  057%=      5-min Rain = 0
KCR1 120701Z 01009KT M04/M11 A3032 RMK A01 T10371111  RH  057%=      5-min Rain = 0
KCR1 120702Z 01009KT M04/M11 A3032 RMK A01 T10371111  RH  057%=      5-min Rain = 0
KCR1 120703Z 01009KT M04/M11 A3032 RMK A01 T10371110  RH  057%=      5-min Rain = 0
KCR1 120704Z 00009KT M04/M11 A3032 RMK A01 T10371110  RH  057%=      5-min Rain = 0
KCR1 120705Z 00010KT M04/M11 A3032 RMK A01 T10371110  RH  057%=      5-min Rain = 0
KCR1 120706Z 00009KT M04/M11 A3032 RMK A01 T10381110  RH  057%=      5-min Rain = 0
KCR1 120707Z 00009KT M04/M11 A3032 RMK A01 T10381111  RH  057%=      5-min Rain = 0
KCR1 120708Z 00009KT M04/M11 A3032 RMK A01 T10381111  RH  057%=      5-min Rain = 0
KCR1 120709Z 00009KT M04/M11 A3032 RMK A01 T10381110  RH  057%=      5-min Rain = 0
KCR1 120710Z 00009KT M04/M11 A3032 RMK A01 T10391110  RH  057%=      5-min Rain = 0
KCR1 120711Z 00008KT M04/M11 A3032 RMK A01 T10401111  RH  058%=      5-min Rain = 0
KCR1 120712Z 00008KT M04/M11 A3032 RMK A01 T10401111  RH  058%=      5-min Rain = 0
KCR1 120713Z 00008KT M04/M11 A3032 RMK A01 T10401111  RH  058%=      5-min Rain = 0
KCR1 120714Z 36008KT M04/M11 A3032 RMK A01 T10411111  RH  058%=      5-min Rain = 0
KCR1 120715Z 36007KT M04/M11 A3032 RMK A01 T10411111  RH  058%=      5-min Rain = 0
KCR1 120716Z 35007KT M04/M11 A3032 RMK A01 T10411111  RH  058%=      5-min Rain = 0
KCR1 120717Z 35008KT M04/M11 A3032 RMK A01 T10421111  RH  059%=      5-min Rain = 0
KCR1 120718Z 36008KT M04/M11 A3032 RMK A01 T10431111  RH  059%=      5-min Rain = 0
KCR1 120719Z 00008KT M04/M11 A3032 RMK A01 T10431111  RH  059%=      5-min Rain = 0
KCR1 120720Z 00008KT M04/M11 A3032 RMK A01 T10431111  RH  059%=      5-min Rain = 0
KCR1 120721Z 00008KT M04/M11 A3032 RMK A01 T10431111  RH  059%=      5-min Rain = 0
KCR1 120722Z 00008KT M04/M11 A3032 RMK A01 T10431112  RH  059%=      5-min Rain = 0
KCR1 120723Z 00008KT M04/M11 A3032 RMK A01 T10441112  RH  059%=      5-min Rain = 0
KCR1 120724Z 00008KT M04/M11 A3032 RMK A01 T10431112  RH  059%=      5-min Rain = 0
KCR1 120725Z 00008KT M04/M11 A3032 RMK A01 T10431111  RH  059%=      5-min Rain = 0
KCR1 120726Z 00008KT M04/M11 A3032 RMK A01 T10441112  RH  059%=      5-min Rain = 0
KCR1 120727Z 00008KT M04/M11 A3032 RMK A01 T10441112  RH  059%=      5-min Rain = 0
KCR1 120728Z 00008KT M04/M11 A3032 RMK A01 T10431112  RH  059%=      5-min Rain = 0
KCR1 120729Z 00008KT M04/M11 A3032 RMK A01 T10431112  RH  059%=      5-min Rain = 0
KCR1 120730Z 00008KT M04/M11 A3032 RMK A01 T10431111  RH  059%=      5-min Rain = 0
KCR1 120731Z 00008KT M04/M11 A3032 RMK A01 T10431112  RH  059%=      5-min Rain = 0
KCR1 120732Z 01009KT M04/M11 A3032 RMK A01 T10441112  RH  059%=      5-min Rain = 0
KCR1 120733Z 01008KT M04/M11 A3032 RMK A01 T10441112  RH  059%=      5-min Rain = 0
KCR1 120734Z 01009KT M04/M11 A3032 RMK A01 T10441112  RH  059%=      5-min Rain = 0
KCR1 120735Z 01008KT M04/M11 A3032 RMK A01 T10441113  RH  059%=      5-min Rain = 0
KCR1 120736Z 01008KT M05/M11 A3032 RMK A01 T10451113  RH  059%=      5-min Rain = 0
KCR1 120737Z 01008KT M05/M11 A3032 RMK A01 T10451113  RH  059%=      5-min Rain = 0
KCR1 120738Z 01008KT M05/M11 A3032 RMK A01 T10451113  RH  059%=      5-min Rain = 0
KCR1 120739Z 01008KT M05/M11 A3032 RMK A01 T10451113  RH  059%=      5-min Rain = 0
KCR1 120740Z 01008KT M05/M11 A3032 RMK A01 T10461113  RH  059%=      5-min Rain = 0
KCR1 120741Z 01008KT M05/M11 A3032 RMK A01 T10471114  RH  059%=      5-min Rain = 0
KCR1 120742Z 01008KT M05/M11 A3032 RMK A01 T10471114  RH  059%=      5-min Rain = 0
KCR1 120743Z 02008KT M05/M11 A3031 RMK A01 T10481114  RH  060%=      5-min Rain = 0
KCR1 120744Z 02008KT M05/M11 A3031 RMK A01 T10481114  RH  060%=      5-min Rain = 0
KCR1 120745Z 02008KT M05/M11 A3031 RMK A01 T10491114  RH  060%=      5-min Rain = 0
KCR1 120746Z 02009KT M05/M11 A3031 RMK A01 T10491114  RH  060%=      5-min Rain = 0
KCR1 120747Z 02008KT M05/M11 A3031 RMK A01 T10491114  RH  060%=      5-min Rain = 0
KCR1 120748Z 02007KT M05/M11 A3031 RMK A01 T10481113  RH  060%=      5-min Rain = 0
KCR1 120749Z 02007KT M05/M11 A3031 RMK A01 T10481114  RH  060%=      5-min Rain = 0
KCR1 120750Z 02006KT M05/M11 A3032 RMK A01 T10481114  RH  060%=      5-min Rain = 0
KCR1 120751Z 02005KT M05/M11 A3032 RMK A01 T10481114  RH  060%=      5-min Rain = 0
KCR1 120752Z 01005KT M05/M12 A3032 RMK A01 T10481115  RH  059%=      5-min Rain = 0
KCR1 120753Z 01005KT M05/M12 A3032 RMK A01 T10481115  RH  059%=      5-min Rain = 0
KCR1 120754Z 01005KT M05/M11 A3032 RMK A01 T10471114  RH  060%=      5-min Rain = 0
KCR1 120755Z 01005KT M05/M11 A3032 RMK A01 T10471114  RH  060%=      5-min Rain = 0
KCR1 120756Z 01006KT M05/M11 A3032 RMK A01 T10471114  RH  060%=      5-min Rain = 0
KCR1 120757Z 00006KT M05/M11 A3032 RMK A01 T10471114  RH  060%=      5-min Rain = 0
KCR1 120758Z 00006KT M05/M11 A3032 RMK A01 T10471114  RH  060%=      5-min Rain = 0
KCR1 120759Z 00006KT M05/M11 A3032 RMK A01 T10481114  RH  060%=      5-min Rain = 0
KCR1 120800Z 00006KT M05/M11 A3032 RMK A01 T10481114  RH  060%=      5-min Rain = 0
KCR1 120801Z 00007KT M05/M12 A3032 RMK A01 T10481115  RH  060%=      5-min Rain = 0
KCR1 120802Z 00007KT M05/M11 A3032 RMK A01 T10491114  RH  060%=      5-min Rain = 0
KCR1 120803Z 00006KT M05/M11 A3032 RMK A01 T10491114  RH  060%=      5-min Rain = 0
KCR1 120804Z 00007KT M05/M12 A3032 RMK A01 T10491115  RH  060%=      5-min Rain = 0
KCR1 120805Z 00007KT M05/M12 A3032 RMK A01 T10501115  RH  060%=      5-min Rain = 0
KCR1 120806Z 00007KT M05/M12 A3032 RMK A01 T10501115  RH  061%=      5-min Rain = 0
KCR1 120807Z 36007KT M05/M12 A3032 RMK A01 T10511115  RH  061%=      5-min Rain = 0
KCR1 120808Z 35007KT M05/M12 A3032 RMK A01 T10511115  RH  061%=      5-min Rain = 0
KCR1 120809Z 35007KT M05/M12 A3032 RMK A01 T10511115  RH  061%=      5-min Rain = 0
KCR1 120810Z 36007KT M05/M11 A3032 RMK A01 T10511114  RH  061%=      5-min Rain = 0
KCR1 120811Z 36008KT M05/M11 A3032 RMK A01 T10511114  RH  061%=      5-min Rain = 0
KCR1 120812Z 36007KT M05/M12 A3032 RMK A01 T10511115  RH  061%=      5-min Rain = 0
KCR1 120813Z 36007KT M05/M12 A3032 RMK A01 T10511115  RH  061%=      5-min Rain = 0
KCR1 120814Z 36007KT M05/M11 A3032 RMK A01 T10511114  RH  061%=      5-min Rain = 0
KCR1 120815Z 36008KT M05/M12 A3032 RMK A01 T10511115  RH  061%=      5-min Rain = 0
KCR1 120816Z 36007KT M05/M12 A3032 RMK A01 T10511115  RH  061%=      5-min Rain = 0
KCR1 120817Z 00007KT M05/M12 A3032 RMK A01 T10511115  RH  061%=      5-min Rain = 0
KCR1 120818Z 00008KT M05/M12 A3032 RMK A01 T10511115  RH  061%=      5-min Rain = 0
KCR1 120819Z 00007KT M05/M12 A3032 RMK A01 T10511115  RH  061%=      5-min Rain = 0
KCR1 120820Z 36007KT M05/M12 A3032 RMK A01 T10511115  RH  060%=      5-min Rain = 0
KCR1 120821Z 35006KT M05/M12 A3033 RMK A01 T10501115  RH  060%=      5-min Rain = 0
KCR1 120822Z 34006KT M05/M12 A3033 RMK A01 T10501115  RH  060%=      5-min Rain = 0
KCR1 120823Z 34006KT M05/M12 A3033 RMK A01 T10501115  RH  060%=      5-min Rain = 0
KCR1 120824Z 34005KT M05/M12 A3033 RMK A01 T10511116  RH  060%=      5-min Rain = 0
KCR1 120825Z 34005KT M05/M12 A3033 RMK A01 T10511116  RH  060%=      5-min Rain = 0
KCR1 120826Z 34005KT M05/M12 A3034 RMK A01 T10511116  RH  060%=      5-min Rain = 0
KCR1 120827Z 34005KT M05/M12 A3034 RMK A01 T10511116  RH  060%=      5-min Rain = 0
KCR1 120828Z 34005KT M05/M12 A3034 RMK A01 T10521117  RH  060%=      5-min Rain = 0
KCR1 120829Z 34005KT M05/M12 A3034 RMK A01 T10521116  RH  060%=      5-min Rain = 0
KCR1 120830Z 34005KT M05/M12 A3034 RMK A01 T10521117  RH  060%=      5-min Rain = 0
KCR1 120831Z 34004KT M05/M12 A3034 RMK A01 T10511117  RH  060%=      5-min Rain = 0
KCR1 120832Z 34005KT M05/M12 A3034 RMK A01 T10511117  RH  060%=      5-min Rain = 0
KCR1 120833Z 34005KT M05/M12 A3034 RMK A01 T10511117  RH  060%=      5-min Rain = 0
KCR1 120834Z 34005KT M05/M12 A3034 RMK A01 T10511117  RH  059%=      5-min Rain = 0
KCR1 120835Z 34005KT M05/M12 A3034 RMK A01 T10501118  RH  059%=      5-min Rain = 0
KCR1 120836Z 35006KT M05/M12 A3034 RMK A01 T10501118  RH  059%=      5-min Rain = 0
KCR1 120837Z 35005KT M05/M12 A3034 RMK A01 T10501118  RH  059%=      5-min Rain = 0
KCR1 120838Z 35006KT M05/M12 A3034 RMK A01 T10501118  RH  059%=      5-min Rain = 0
KCR1 120839Z 35006KT M05/M12 A3034 RMK A01 T10491118  RH  059%=      5-min Rain = 0
KCR1 120840Z 35007KT M05/M12 A3034 RMK A01 T10501119  RH  058%=      5-min Rain = 0
KCR1 120841Z 35007KT M05/M12 A3034 RMK A01 T10491118  RH  058%=      5-min Rain = 0
KCR1 120842Z 35007KT M05/M12 A3034 RMK A01 T10491119  RH  058%=      5-min Rain = 0
KCR1 120843Z 35007KT M05/M12 A3034 RMK A01 T10491119  RH  058%=      5-min Rain = 0
KCR1 120844Z 35008KT M05/M12 A3034 RMK A01 T10491119  RH  058%=      5-min Rain = 0
KCR1 120845Z 35008KT M05/M12 A3034 RMK A01 T10501119  RH  058%=      5-min Rain = 0
KCR1 120846Z 36007KT M05/M12 A3034 RMK A01 T10501119  RH  058%=      5-min Rain = 0
KCR1 120847Z 00007KT M05/M12 A3033 RMK A01 T10501119  RH  058%=      5-min Rain = 0
KCR1 120848Z 01007KT M05/M12 A3033 RMK A01 T10501120  RH  058%=      5-min Rain = 0
KCR1 120849Z 01007KT M05/M12 A3033 RMK A01 T10511120  RH  058%=      5-min Rain = 0
KCR1 120850Z 01007KT M05/M12 A3033 RMK A01 T10521121  RH  058%=      5-min Rain = 0
KCR1 120851Z 01007KT M05/M12 A3033 RMK A01 T10531121  RH  059%=      5-min Rain = 0
KCR1 120852Z 01007KT M05/M12 A3033 RMK A01 T10531121  RH  059%=      5-min Rain = 0
KCR1 120853Z 01007KT M05/M12 A3033 RMK A01 T10531121  RH  059%=      5-min Rain = 0
KCR1 120854Z 01007KT M05/M12 A3033 RMK A01 T10531121  RH  059%=      5-min Rain = 0
KCR1 120855Z 01006KT M05/M12 A3033 RMK A01 T10541121  RH  059%=      5-min Rain = 0
KCR1 120856Z 01006KT M05/M12 A3033 RMK A01 T10541122  RH  059%=      5-min Rain = 0
KCR1 120857Z 01006KT M06/M12 A3033 RMK A01 T10551122  RH  059%=      5-min Rain = 0
KCR1 120858Z 01006KT M06/M12 A3033 RMK A01 T10561122  RH  060%=      5-min Rain = 0
KCR1 120859Z 01006KT M06/M12 A3033 RMK A01 T10571122  RH  060%=      5-min Rain = 0
KCR1 120900Z 01006KT M06/M12 A3033 RMK A01 T10581122  RH  061%=      5-min Rain = 0
KCR1 120901Z 01006KT M06/M12 A3033 RMK A01 T10581121  RH  061%=      5-min Rain = 0
KCR1 120902Z 01006KT M06/M12 A3033 RMK A01 T10591122  RH  061%=      5-min Rain = 0
KCR1 120903Z 01006KT M06/M12 A3033 RMK A01 T10591122  RH  061%=      5-min Rain = 0
KCR1 120904Z 01006KT M06/M12 A3033 RMK A01 T10601121  RH  062%=      5-min Rain = 0
KCR1 120905Z 01007KT M06/M12 A3033 RMK A01 T10601121  RH  062%=      5-min Rain = 0
KCR1 120906Z 01007KT M06/M12 A3033 RMK A01 T10611122  RH  062%=      5-min Rain = 0
KCR1 120907Z 01007KT M06/M12 A3033 RMK A01 T10611121  RH  062%=      5-min Rain = 0
KCR1 120908Z 01007KT M06/M12 A3033 RMK A01 T10611121  RH  062%=      5-min Rain = 0
KCR1 120909Z 01007KT M06/M12 A3032 RMK A01 T10611121  RH  062%=      5-min Rain = 0
KCR1 120910Z 01007KT M06/M12 A3032 RMK A01 T10611121  RH  062%=      5-min Rain = 0
KCR1 120911Z 01007KT M06/M12 A3032 RMK A01 T10611121  RH  063%=      5-min Rain = 0
KCR1 120912Z 01007KT M06/M12 A3032 RMK A01 T10611121  RH  063%=      5-min Rain = 0
KCR1 120913Z 00007KT M06/M12 A3032 RMK A01 T10611121  RH  063%=      5-min Rain = 0
KCR1 120914Z 00007KT M06/M12 A3032 RMK A01 T10611121  RH  063%=      5-min Rain = 0
KCR1 120915Z 36007KT M06/M12 A3032 RMK A01 T10621121  RH  063%=      5-min Rain = 0
KCR1 120916Z 35006KT M06/M12 A3032 RMK A01 T10621120  RH  063%=      5-min Rain = 0
KCR1 120917Z 35006KT M06/M12 A3032 RMK A01 T10611120  RH  063%=      5-min Rain = 0
KCR1 120918Z 35006KT M06/M12 A3032 RMK A01 T10611119  RH  064%=      5-min Rain = 0
KCR1 120919Z 35006KT M06/M12 A3032 RMK A01 T10611119  RH  064%=      5-min Rain = 0
KCR1 120920Z 35006KT M06/M12 A3032 RMK A01 T10611119  RH  064%=      5-min Rain = 0
KCR1 120921Z 35006KT M06/M12 A3032 RMK A01 T10601118  RH  064%=      5-min Rain = 0
KCR1 120922Z 35005KT M06/M12 A3032 RMK A01 T10601118  RH  064%=      5-min Rain = 0
KCR1 120923Z 35006KT M06/M12 A3032 RMK A01 T10601118  RH  063%=      5-min Rain = 0
KCR1 120924Z 35006KT M06/M12 A3032 RMK A01 T10601118  RH  063%=      5-min Rain = 0
KCR1 120925Z 35006KT M06/M12 A3032 RMK A01 T10591118  RH  063%=      5-min Rain = 0
KCR1 120926Z 35006KT M06/M12 A3032 RMK A01 T10591118  RH  063%=      5-min Rain = 0
KCR1 120927Z 35006KT M06/M12 A3031 RMK A01 T10591118  RH  063%=      5-min Rain = 0
KCR1 120928Z 35005KT M06/M12 A3031 RMK A01 T10591118  RH  063%=      5-min Rain = 0
KCR1 120929Z 35005KT M06/M12 A3031 RMK A01 T10581118  RH  063%=      5-min Rain = 0
KCR1 120930Z 36005KT M06/M12 A3031 RMK A01 T10581118  RH  062%=      5-min Rain = 0
KCR1 120931Z 36005KT M06/M12 A3031 RMK A01 T10581119  RH  062%=      5-min Rain = 0
KCR1 120932Z 00005KT M06/M12 A3031 RMK A01 T10581120  RH  062%=      5-min Rain = 0
KCR1 120933Z 01004KT M06/M12 A3031 RMK A01 T10581120  RH  062%=      5-min Rain = 0
KCR1 120934Z 01004KT M06/M12 A3031 RMK A01 T10591120  RH  062%=      5-min Rain = 0
KCR1 120935Z 01004KT M06/M12 A3031 RMK A01 T10601121  RH  062%=      5-min Rain = 0
KCR1 120936Z 01004KT M06/M12 A3031 RMK A01 T10611121  RH  062%=      5-min Rain = 0
KCR1 120937Z 01003KT M06/M12 A3031 RMK A01 T10611122  RH  062%=      5-min Rain = 0
KCR1 120938Z 01003KT M06/M12 A3031 RMK A01 T10621122  RH  062%=      5-min Rain = 0
KCR1 120939Z 00004KT M06/M12 A3031 RMK A01 T10621122  RH  063%=      5-min Rain = 0
KCR1 120940Z 00004KT M06/M12 A3031 RMK A01 T10621122  RH  063%=      5-min Rain = 0
KCR1 120941Z 35004KT M06/M12 A3031 RMK A01 T10621121  RH  063%=      5-min Rain = 0
KCR1 120942Z 35004KT M06/M12 A3031 RMK A01 T10621121  RH  063%=      5-min Rain = 0
KCR1 120943Z 34004KT M06/M12 A3031 RMK A01 T10621121  RH  063%=      5-min Rain = 0
KCR1 120944Z 34004KT M06/M12 A3031 RMK A01 T10621122  RH  063%=      5-min Rain = 0
KCR1 120945Z 34004KT M06/M12 A3031 RMK A01 T10621121  RH  063%=      5-min Rain = 0
KCR1 120946Z 34004KT M06/M12 A3031 RMK A01 T10621121  RH  063%=      5-min Rain = 0
KCR1 120947Z 33004KT M06/M12 A3031 RMK A01 T10621121  RH  063%=      5-min Rain = 0
KCR1 120948Z 33004KT M06/M12 A3031 RMK A01 T10621121  RH  063%=      5-min Rain = 0
KCR1 120949Z 34004KT M06/M12 A3031 RMK A01 T10621121  RH  063%=      5-min Rain = 0
KCR1 120950Z 33004KT M06/M12 A3031 RMK A01 T10621121  RH  063%=      5-min Rain = 0
KCR1 120951Z 34003KT M06/M12 A3031 RMK A01 T10621121  RH  063%=      5-min Rain = 0
KCR1 120952Z 34003KT M06/M12 A3031 RMK A01 T10621121  RH  063%=      5-min Rain = 0
KCR1 120953Z 35003KT M06/M12 A3031 RMK A01 T10621121  RH  063%=      5-min Rain = 0
KCR1 120954Z 35003KT M06/M12 A3031 RMK A01 T10611120  RH  063%=      5-min Rain = 0
KCR1 120955Z 35004KT M06/M12 A3031 RMK A01 T10611120  RH  063%=      5-min Rain = 0
KCR1 120956Z 35004KT M06/M12 A3031 RMK A01 T10611120  RH  063%=      5-min Rain = 0
KCR1 120957Z 35004KT M06/M12 A3031 RMK A01 T10601120  RH  063%=      5-min Rain = 0
KCR1 120958Z 34004KT M06/M12 A3031 RMK A01 T10591119  RH  063%=      5-min Rain = 0
KCR1 120959Z 34004KT M06/M12 A3031 RMK A01 T10591120  RH  062%=      5-min Rain = 0
KCR1 121000Z 34004KT M06/M12 A3031 RMK A01 T10591120  RH  062%=      5-min Rain = 0
KCR1 121001Z 34004KT M06/M12 A3031 RMK A01 T10591120  RH  062%=      5-min Rain = 0
KCR1 121002Z 34005KT M06/M12 A3031 RMK A01 T10591121  RH  062%=      5-min Rain = 0
KCR1 121003Z 34005KT M06/M12 A3031 RMK A01 T10601120  RH  062%=      5-min Rain = 0
KCR1 121004Z 34005KT M06/M12 A3031 RMK A01 T10601121  RH  062%=      5-min Rain = 0
KCR1 121005Z 34005KT M06/M12 A3031 RMK A01 T10611121  RH  062%=      5-min Rain = 0
KCR1 121006Z 34005KT M06/M12 A3031 RMK A01 T10611121  RH  063%=      5-min Rain = 0
KCR1 121007Z 34006KT M06/M12 A3031 RMK A01 T10621121  RH  063%=      5-min Rain = 0
KCR1 121008Z 34006KT M06/M12 A3031 RMK A01 T10621120  RH  064%=      5-min Rain = 0
KCR1 121009Z 34006KT M06/M12 A3031 RMK A01 T10631120  RH  064%=      5-min Rain = 0
KCR1 121010Z 34006KT M06/M12 A3031 RMK A01 T10631120  RH  064%=      5-min Rain = 0
KCR1 121011Z 35006KT M06/M12 A3031 RMK A01 T10631120  RH  064%=      5-min Rain = 0
KCR1 121012Z 35006KT M06/M12 A3031 RMK A01 T10641120  RH  064%=      5-min Rain = 0
KCR1 121013Z 34006KT M06/M12 A3031 RMK A01 T10641120  RH  064%=      5-min Rain = 0
KCR1 121014Z 34006KT M06/M12 A3031 RMK A01 T10631120  RH  064%=      5-min Rain = 0
KCR1 121015Z 34005KT M06/M12 A3031 RMK A01 T10641120  RH  064%=      5-min Rain = 0
KCR1 121016Z 34005KT M06/M12 A3031 RMK A01 T10641120  RH  065%=      5-min Rain = 0
KCR1 121017Z 34005KT M06/M12 A3031 RMK A01 T10641119  RH  065%=      5-min Rain = 0
KCR1 121018Z 34004KT M06/M12 A3031 RMK A01 T10641119  RH  065%=      5-min Rain = 0
KCR1 121019Z 33004KT M06/M12 A3031 RMK A01 T10641119  RH  065%=      5-min Rain = 0
KCR1 121020Z 33004KT M06/M12 A3031 RMK A01 T10641119  RH  065%=      5-min Rain = 0
KCR1 121021Z 33004KT M06/M12 A3031 RMK A01 T10641119  RH  065%=      5-min Rain = 0
KCR1 121022Z 33003KT M06/M12 A3031 RMK A01 T10631118  RH  065%=      5-min Rain = 0
KCR1 121023Z 33004KT M06/M12 A3031 RMK A01 T10621118  RH  065%=      5-min Rain = 0
KCR1 121024Z 33004KT M06/M12 A3031 RMK A01 T10611118  RH  064%=      5-min Rain = 0
KCR1 121025Z 34005KT M06/M12 A3031 RMK A01 T10601117  RH  064%=      5-min Rain = 0
KCR1 121026Z 34005KT M06/M12 A3031 RMK A01 T10591117  RH  064%=      5-min Rain = 0
KCR1 121027Z 33005KT M06/M12 A3031 RMK A01 T10581117  RH  063%=      5-min Rain = 0
KCR1 121028Z 34006KT M06/M12 A3031 RMK A01 T10581118  RH  063%=      5-min Rain = 0
KCR1 121029Z 34006KT M06/M12 A3031 RMK A01 T10581118  RH  063%=      5-min Rain = 0
KCR1 121030Z 34006KT M06/M12 A3031 RMK A01 T10581118  RH  063%=      5-min Rain = 0
KCR1 121031Z 34007KT M06/M12 A3031 RMK A01 T10581118  RH  062%=      5-min Rain = 0
KCR1 121032Z 34007KT M06/M12 A3031 RMK A01 T10581119  RH  062%=      5-min Rain = 0
KCR1 121033Z 35006KT M06/M12 A3031 RMK A01 T10581119  RH  062%=      5-min Rain = 0
KCR1 121034Z 35005KT M06/M12 A3032 RMK A01 T10571120  RH  061%=      5-min Rain = 0
KCR1 121035Z 35005KT M06/M12 A3032 RMK A01 T10571120  RH  061%=      5-min Rain = 0
KCR1 121036Z 35004KT M06/M12 A3032 RMK A01 T10571120  RH  061%=      5-min Rain = 0
KCR1 121037Z 36004KT M06/M12 A3032 RMK A01 T10571120  RH  061%=      5-min Rain = 0
KCR1 121038Z 36005KT M06/M12 A3032 RMK A01 T10581120  RH  061%=      5-min Rain = 0
KCR1 121039Z 35005KT M06/M12 A3032 RMK A01 T10581120  RH  061%=      5-min Rain = 0
KCR1 121040Z 35005KT M06/M12 A3032 RMK A01 T10581120  RH  061%=      5-min Rain = 0
KCR1 121041Z 36005KT M06/M12 A3032 RMK A01 T10571120  RH  061%=      5-min Rain = 0
KCR1 121042Z 36005KT M06/M12 A3032 RMK A01 T10581121  RH  061%=      5-min Rain = 0
KCR1 121043Z 36005KT M06/M12 A3032 RMK A01 T10591121  RH  061%=      5-min Rain = 0
KCR1 121044Z 36006KT M06/M12 A3032 RMK A01 T10601121  RH  062%=      5-min Rain = 0
KCR1 121045Z 36006KT M06/M12 A3032 RMK A01 T10611121  RH  062%=      5-min Rain = 0
KCR1 121046Z 36006KT M06/M12 A3032 RMK A01 T10621123  RH  062%=      5-min Rain = 0
KCR1 121047Z 36007KT M06/M12 A3032 RMK A01 T10641123  RH  063%=      5-min Rain = 0
KCR1 121048Z 00007KT M07/M12 A3032 RMK A01 T10651123  RH  064%=      5-min Rain = 0
KCR1 121049Z 00007KT M07/M12 A3032 RMK A01 T10661122  RH  064%=      5-min Rain = 0
KCR1 121050Z 00007KT M07/M12 A3032 RMK A01 T10671122  RH  065%=      5-min Rain = 0
KCR1 121051Z 00007KT M07/M12 A3032 RMK A01 T10671121  RH  065%=      5-min Rain = 0
KCR1 121052Z 00006KT M07/M12 A3032 RMK A01 T10681122  RH  066%=      5-min Rain = 0
KCR1 121053Z 00006KT M07/M12 A3032 RMK A01 T10691122  RH  066%=      5-min Rain = 0
KCR1 121054Z 01006KT M07/M12 A3032 RMK A01 T10701122  RH  066%=      5-min Rain = 0
KCR1 121055Z 00007KT M07/M12 A3032 RMK A01 T10701122  RH  066%=      5-min Rain = 0
KCR1 121056Z 01007KT M07/M12 A3032 RMK A01 T10701122  RH  066%=      5-min Rain = 0
KCR1 121057Z 01007KT M07/M12 A3032 RMK A01 T10701122  RH  067%=      5-min Rain = 0
KCR1 121058Z 00007KT M07/M12 A3032 RMK A01 T10701122  RH  067%=      5-min Rain = 0
KCR1 121059Z 00007KT M07/M12 A3032 RMK A01 T10701122  RH  066%=      5-min Rain = 0
KCR1 121100Z 00006KT M07/M12 A3032 RMK A01 T10701122  RH  066%=      5-min Rain = 0
KCR1 121101Z 36006KT M07/M12 A3032 RMK A01 T10701122  RH  066%=      5-min Rain = 0
KCR1 121102Z 36006KT M07/M12 A3032 RMK A01 T10701122  RH  066%=      5-min Rain = 0
KCR1 121103Z 36006KT M07/M12 A3032 RMK A01 T10691122  RH  066%=      5-min Rain = 0
KCR1 121104Z 36006KT M07/M12 A3031 RMK A01 T10691121  RH  066%=      5-min Rain = 0
KCR1 121105Z 36006KT M07/M12 A3031 RMK A01 T10691122  RH  066%=      5-min Rain = 0
KCR1 121106Z 00006KT M07/M12 A3031 RMK A01 T10691122  RH  066%=      5-min Rain = 0
KCR1 121107Z 00006KT M07/M12 A3031 RMK A01 T10691122  RH  066%=      5-min Rain = 0
KCR1 121108Z 00006KT M07/M12 A3031 RMK A01 T10681122  RH  066%=      5-min Rain = 0
KCR1 121109Z 00006KT M07/M12 A3031 RMK A01 T10691123  RH  065%=      5-min Rain = 0
KCR1 121110Z 00007KT M07/M12 A3031 RMK A01 T10691123  RH  065%=      5-min Rain = 0
KCR1 121111Z 00007KT M07/M12 A3031 RMK A01 T10691123  RH  065%=      5-min Rain = 0
KCR1 121112Z 00007KT M07/M12 A3031 RMK A01 T10691123  RH  065%=      5-min Rain = 0
KCR1 121113Z 00007KT M07/M12 A3031 RMK A01 T10691124  RH  065%=      5-min Rain = 0
KCR1 121114Z 00006KT M07/M12 A3031 RMK A01 T10701124  RH  065%=      5-min Rain = 0
KCR1 121115Z 35007KT M07/M12 A3031 RMK A01 T10701124  RH  065%=      5-min Rain = 0
KCR1 121116Z 35007KT M07/M12 A3032 RMK A01 T10701124  RH  065%=      5-min Rain = 0
KCR1 121117Z 35007KT M07/M12 A3032 RMK A01 T10701124  RH  065%=      5-min Rain = 0
KCR1 121118Z 35006KT M07/M12 A3032 RMK A01 T10701124  RH  065%=      5-min Rain = 0
KCR1 121119Z 35005KT M07/M12 A3032 RMK A01 T10701124  RH  065%=      5-min Rain = 0
KCR1 121120Z 35005KT M07/M12 A3032 RMK A01 T10691123  RH  065%=      5-min Rain = 0
KCR1 121121Z 35004KT M07/M12 A3032 RMK A01 T10691123  RH  065%=      5-min Rain = 0
KCR1 121122Z 35004KT M07/M12 A3032 RMK A01 T10691124  RH  065%=      5-min Rain = 0
KCR1 121123Z 34004KT M07/M12 A3032 RMK A01 T10681124  RH  065%=      5-min Rain = 0
KCR1 121124Z 34004KT M07/M12 A3032 RMK A01 T10681124  RH  065%=      5-min Rain = 0
KCR1 121125Z 34004KT M07/M12 A3032 RMK A01 T10681124  RH  065%=      5-min Rain = 0
KCR1 121126Z 34004KT M07/M12 A3032 RMK A01 T10691124  RH  065%=      5-min Rain = 0
KCR1 121127Z 34005KT M07/M12 A3032 RMK A01 T10701124  RH  065%=      5-min Rain = 0
KCR1 121128Z 34005KT M07/M12 A3033 RMK A01 T10701124  RH  066%=      5-min Rain = 0
KCR1 121129Z 34005KT M07/M12 A3033 RMK A01 T10701123  RH  066%=      5-min Rain = 0
KCR1 121130Z 34005KT M07/M12 A3033 RMK A01 T10701123  RH  066%=      5-min Rain = 0
KCR1 121131Z 34005KT M07/M12 A3033 RMK A01 T10701123  RH  066%=      5-min Rain = 0
KCR1 121132Z 34005KT M07/M12 A3032 RMK A01 T10691122  RH  066%=      5-min Rain = 0
KCR1 121133Z 34005KT M07/M12 A3032 RMK A01 T10691122  RH  066%=      5-min Rain = 0
KCR1 121134Z 33005KT M07/M12 A3032 RMK A01 T10691122  RH  066%=      5-min Rain = 0
KCR1 121135Z 34005KT M07/M12 A3033 RMK A01 T10701123  RH  066%=      5-min Rain = 0
KCR1 121136Z 33005KT M07/M12 A3033 RMK A01 T10701123  RH  066%=      5-min Rain = 0
KCR1 121137Z 33005KT M07/M12 A3033 RMK A01 T10701122  RH  066%=      5-min Rain = 0
KCR1 121138Z 33005KT M07/M12 A3033 RMK A01 T10701122  RH  066%=      5-min Rain = 0
KCR1 121139Z 33004KT M07/M12 A3033 RMK A01 T10691121  RH  066%=      5-min Rain = 0
KCR1 121140Z 33004KT M07/M12 A3033 RMK A01 T10691120  RH  067%=      5-min Rain = 0
KCR1 121141Z 32004KT M07/M12 A3033 RMK A01 T10681120  RH  067%=      5-min Rain = 0
KCR1 121142Z 32004KT M07/M12 A3033 RMK A01 T10681120  RH  066%=      5-min Rain = 0
KCR1 121143Z 30003KT M07/M12 A3033 RMK A01 T10681120  RH  066%=      5-min Rain = 0
KCR1 121144Z 30003KT M07/M12 A3033 RMK A01 T10671120  RH  066%=      5-min Rain = 0
KCR1 121145Z 29003KT M07/M12 A3033 RMK A01 T10671120  RH  066%=      5-min Rain = 0
KCR1 121146Z 29003KT M07/M12 A3033 RMK A01 T10661119  RH  066%=      5-min Rain = 0
KCR1 121147Z 28003KT M07/M12 A3033 RMK A01 T10661119  RH  066%=      5-min Rain = 0
KCR1 121148Z 29003KT M07/M12 A3032 RMK A01 T10651119  RH  066%=      5-min Rain = 0
KCR1 121149Z 28003KT M07/M12 A3032 RMK A01 T10651119  RH  066%=      5-min Rain = 0
KCR1 121150Z 29004KT M07/M12 A3032 RMK A01 T10661119  RH  066%=      5-min Rain = 0
KCR1 121151Z 28003KT M07/M12 A3032 RMK A01 T10661120  RH  066%=      5-min Rain = 0
KCR1 121152Z 29004KT M07/M12 A3032 RMK A01 T10681120  RH  066%=      5-min Rain = 0
KCR1 121153Z 28004KT M07/M12 A3032 RMK A01 T10691120  RH  067%=      5-min Rain = 0
KCR1 121154Z 28003KT M07/M12 A3032 RMK A01 T10711120  RH  068%=      5-min Rain = 0
KCR1 121155Z 28003KT M07/M12 A3032 RMK A01 T10711120  RH  068%=      5-min Rain = 0
KCR1 121156Z 28003KT M07/M12 A3033 RMK A01 T10721120  RH  069%=      5-min Rain = 0
KCR1 121157Z 28003KT M07/M12 A3033 RMK A01 T10721120  RH  069%=      5-min Rain = 0
KCR1 121158Z 29003KT M07/M12 A3033 RMK A01 T10731120  RH  069%=      5-min Rain = 0
KCR1 121159Z 29004KT M07/M12 A3033 RMK A01 T10731120  RH  069%=      5-min Rain = 0
KCR1 121200Z 30004KT M07/M12 A3033 RMK A01 T10731120  RH  069%=      5-min Rain = 0
KCR1 121201Z 30005KT M07/M12 A3033 RMK A01 T10741120  RH  069%=      5-min Rain = 0
KCR1 121202Z 30005KT M07/M12 A3033 RMK A01 T10741120  RH  070%=      5-min Rain = 0
KCR1 121203Z 30005KT M07/M12 A3033 RMK A01 T10741120  RH  070%=      5-min Rain = 0
KCR1 121204Z 30004KT M08/M12 A3033 RMK A01 T10751120  RH  070%=      5-min Rain = 0
KCR1 121205Z 30004KT M08/M12 A3033 RMK A01 T10761120  RH  070%=      5-min Rain = 0
KCR1 121206Z 29004KT M08/M12 A3033 RMK A01 T10761120  RH  071%=      5-min Rain = 0
KCR1 121207Z 29005KT M08/M12 A3033 RMK A01 T10761120  RH  071%=      5-min Rain = 0
KCR1 121208Z 29005KT M08/M12 A3033 RMK A01 T10761120  RH  071%=      5-min Rain = 0
KCR1 121209Z 29005KT M08/M12 A3033 RMK A01 T10771121  RH  071%=      5-min Rain = 0
KCR1 121210Z 29005KT M08/M12 A3034 RMK A01 T10761121  RH  071%=      5-min Rain = 0
KCR1 121211Z 29005KT M08/M12 A3034 RMK A01 T10761120  RH  071%=      5-min Rain = 0
KCR1 121212Z 29005KT M08/M12 A3034 RMK A01 T10761120  RH  071%=      5-min Rain = 0
KCR1 121213Z 29005KT M08/M12 A3034 RMK A01 T10761119  RH  071%=      5-min Rain = 0
KCR1 121214Z 30006KT M08/M12 A3034 RMK A01 T10751118  RH  071%=      5-min Rain = 0
KCR1 121215Z 30006KT M08/M12 A3034 RMK A01 T10751118  RH  071%=      5-min Rain = 0
KCR1 121216Z 30006KT M08/M12 A3034 RMK A01 T10751119  RH  071%=      5-min Rain = 0
KCR1 121217Z 30005KT M08/M12 A3034 RMK A01 T10751119  RH  071%=      5-min Rain = 0
KCR1 121218Z 30006KT M08/M12 A3034 RMK A01 T10761119  RH  071%=      5-min Rain = 0
KCR1 121219Z 30005KT M08/M12 A3033 RMK A01 T10751118  RH  071%=      5-min Rain = 0
KCR1 121220Z 30006KT M08/M12 A3033 RMK A01 T10751118  RH  071%=      5-min Rain = 0
KCR1 121221Z 30006KT M08/M12 A3033 RMK A01 T10751119  RH  071%=      5-min Rain = 0
KCR1 121222Z 30006KT M08/M12 A3033 RMK A01 T10751119  RH  071%=      5-min Rain = 0
KCR1 121223Z 30006KT M08/M12 A3033 RMK A01 T10751118  RH  071%=      5-min Rain = 0
KCR1 121224Z 30006KT M08/M12 A3034 RMK A01 T10751118  RH  071%=      5-min Rain = 0
KCR1 121225Z 30006KT M08/M12 A3034 RMK A01 T10751118  RH  071%=      5-min Rain = 0
KCR1 121226Z 30005KT M08/M12 A3034 RMK A01 T10751118  RH  071%=      5-min Rain = 0
KCR1 121227Z 30005KT M07/M12 A3034 RMK A01 T10741118  RH  071%=      5-min Rain = 0
KCR1 121228Z 30005KT M07/M12 A3034 RMK A01 T10741118  RH  071%=      5-min Rain = 0
KCR1 121229Z 30005KT M07/M12 A3034 RMK A01 T10741119  RH  070%=      5-min Rain = 0
KCR1 121230Z 30005KT M07/M12 A3034 RMK A01 T10741119  RH  070%=      5-min Rain = 0
KCR1 121231Z 31006KT M07/M12 A3034 RMK A01 T10741119  RH  070%=      5-min Rain = 0
KCR1 121232Z 31006KT M07/M12 A3034 RMK A01 T10741119  RH  070%=      5-min Rain = 0
KCR1 121233Z 31005KT M07/M12 A3034 RMK A01 T10741119  RH  070%=      5-min Rain = 0
KCR1 121234Z 31005KT M07/M12 A3034 RMK A01 T10741120  RH  070%=      5-min Rain = 0
KCR1 121235Z 31005KT M07/M12 A3034 RMK A01 T10741120  RH  070%=      5-min Rain = 0
KCR1 121236Z 32006KT M07/M12 A3034 RMK A01 T10741120  RH  070%=      5-min Rain = 0
KCR1 121237Z 32006KT M07/M12 A3034 RMK A01 T10741120  RH  069%=      5-min Rain = 0
KCR1 121238Z 32006KT M07/M12 A3034 RMK A01 T10731120  RH  069%=      5-min Rain = 0
KCR1 121239Z 33006KT M07/M12 A3034 RMK A01 T10721120  RH  068%=      5-min Rain = 0
KCR1 121240Z 32006KT M07/M12 A3034 RMK A01 T10711121  RH  068%=      5-min Rain = 0
KCR1 121241Z 32007KT M07/M12 A3034 RMK A01 T10711122  RH  067%=      5-min Rain = 0
KCR1 121242Z 33006KT M07/M12 A3034 RMK A01 T10701122  RH  067%=      5-min Rain = 0
KCR1 121243Z 33006KT M07/M12 A3034 RMK A01 T10701122  RH  066%=      5-min Rain = 0
KCR1 121244Z 33006KT M07/M12 A3034 RMK A01 T10691123  RH  066%=      5-min Rain = 0
KCR1 121245Z 33006KT M07/M12 A3034 RMK A01 T10691123  RH  065%=      5-min Rain = 0
KCR1 121246Z 33006KT M07/M12 A3034 RMK A01 T10691124  RH  065%=      5-min Rain = 0
KCR1 121247Z 32005KT M07/M12 A3034 RMK A01 T10681124  RH  065%=      5-min Rain = 0
KCR1 121248Z 32005KT M07/M12 A3034 RMK A01 T10691124  RH  065%=      5-min Rain = 0
KCR1 121249Z 32005KT M07/M12 A3034 RMK A01 T10691124  RH  065%=      5-min Rain = 0
KCR1 121250Z 32005KT M07/M12 A3034 RMK A01 T10691124  RH  065%=      5-min Rain = 0
KCR1 121251Z 32006KT M07/M13 A3034 RMK A01 T10691125  RH  065%=      5-min Rain = 0
KCR1 121252Z 33006KT M07/M13 A3034 RMK A01 T10701125  RH  065%=      5-min Rain = 0
KCR1 121253Z 33006KT M07/M13 A3034 RMK A01 T10691125  RH  064%=      5-min Rain = 0
KCR1 121254Z 33006KT M07/M13 A3034 RMK A01 T10691125  RH  064%=      5-min Rain = 0
KCR1 121255Z 33006KT M07/M13 A3034 RMK A01 T10691126  RH  064%=      5-min Rain = 0
KCR1 121256Z 33007KT M07/M13 A3034 RMK A01 T10691126  RH  064%=      5-min Rain = 0
KCR1 121257Z 33007KT M07/M13 A3034 RMK A01 T10681126  RH  063%=      5-min Rain = 0
KCR1 121258Z 33007KT M07/M13 A3034 RMK A01 T10681126  RH  063%=      5-min Rain = 0
KCR1 121259Z 33007KT M07/M13 A3034 RMK A01 T10691127  RH  063%=      5-min Rain = 0
KCR1 121300Z 33007KT M07/M13 A3034 RMK A01 T10691127  RH  063%=      5-min Rain = 0
KCR1 121301Z 34007KT M07/M13 A3034 RMK A01 T10691127  RH  063%=      5-min Rain = 0
KCR1 121302Z 34007KT M07/M13 A3034 RMK A01 T10691127  RH  063%=      5-min Rain = 0
KCR1 121303Z 34007KT M07/M13 A3034 RMK A01 T10691128  RH  063%=      5-min Rain = 0
KCR1 121304Z 34007KT M07/M13 A3034 RMK A01 T10701128  RH  063%=      5-min Rain = 0
KCR1 121305Z 34007KT M07/M13 A3034 RMK A01 T10701128  RH  063%=      5-min Rain = 0
KCR1 121306Z 34007KT M07/M13 A3034 RMK A01 T10711128  RH  064%=      5-min Rain = 0
KCR1 121307Z 34007KT M07/M13 A3034 RMK A01 T10711129  RH  064%=      5-min Rain = 0
KCR1 121308Z 34008KT M07/M13 A3034 RMK A01 T10721128  RH  064%=      5-min Rain = 0
KCR1 121309Z 34008KT M07/M13 A3034 RMK A01 T10721128  RH  064%=      5-min Rain = 0
KCR1 121310Z 34007KT M07/M13 A3034 RMK A01 T10721129  RH  064%=      5-min Rain = 0
KCR1 121311Z 33007KT M07/M13 A3034 RMK A01 T10721129  RH  064%=      5-min Rain = 0
KCR1 121312Z 33006KT M07/M13 A3034 RMK A01 T10721129  RH  064%=      5-min Rain = 0
KCR1 121313Z 33006KT M07/M13 A3034 RMK A01 T10721129  RH  064%=      5-min Rain = 0
KCR1 121314Z 33006KT M07/M13 A3034 RMK A01 T10731129  RH  064%=      5-min Rain = 0
KCR1 121315Z 33006KT M07/M13 A3034 RMK A01 T10731129  RH  064%=      5-min Rain = 0
KCR1 121316Z 33006KT M07/M13 A3034 RMK A01 T10731129  RH  064%=      5-min Rain = 0
KCR1 121317Z 34005KT M07/M13 A3034 RMK A01 T10731129  RH  064%=      5-min Rain = 0
KCR1 121318Z 34005KT M07/M13 A3034 RMK A01 T10731129  RH  064%=      5-min Rain = 0
KCR1 121319Z 34006KT M07/M13 A3034 RMK A01 T10731129  RH  064%=      5-min Rain = 0
KCR1 121320Z 34006KT M07/M13 A3034 RMK A01 T10731129  RH  064%=      5-min Rain = 0
KCR1 121321Z 33006KT M07/M13 A3034 RMK A01 T10741129  RH  065%=      5-min Rain = 0
KCR1 121322Z 33006KT M08/M13 A3034 RMK A01 T10751129  RH  065%=      5-min Rain = 0
KCR1 121323Z 33006KT M08/M13 A3034 RMK A01 T10751128  RH  066%=      5-min Rain = 0
KCR1 121324Z 33006KT M08/M13 A3034 RMK A01 T10751128  RH  066%=      5-min Rain = 0
KCR1 121325Z 34005KT M08/M13 A3034 RMK A01 T10761128  RH  066%=      5-min Rain = 0
KCR1 121326Z 34006KT M08/M13 A3034 RMK A01 T10761129  RH  066%=      5-min Rain = 0
KCR1 121327Z 34005KT M08/M13 A3034 RMK A01 T10761129  RH  066%=      5-min Rain = 0
KCR1 121328Z 34006KT M08/M13 A3034 RMK A01 T10761129  RH  066%=      5-min Rain = 0
KCR1 121329Z 34006KT M08/M13 A3034 RMK A01 T10771129  RH  066%=      5-min Rain = 0
KCR1 121330Z 34007KT M08/M13 A3034 RMK A01 T10771129  RH  066%=      5-min Rain = 0
KCR1 121331Z 34007KT M08/M13 A3034 RMK A01 T10771129  RH  066%=      5-min Rain = 0
KCR1 121332Z 34008KT M08/M13 A3034 RMK A01 T10781129  RH  067%=      5-min Rain = 0
KCR1 121333Z 34007KT M08/M13 A3034 RMK A01 T10781130  RH  067%=      5-min Rain = 0
KCR1 121334Z 34007KT M08/M13 A3034 RMK A01 T10791129  RH  067%=      5-min Rain = 0
KCR1 121335Z 34007KT M08/M13 A3034 RMK A01 T10781129  RH  067%=      5-min Rain = 0
KCR1 121336Z 34006KT M08/M13 A3034 RMK A01 T10791129  RH  067%=      5-min Rain = 0
KCR1 121337Z 33006KT M08/M13 A3034 RMK A01 T10791129  RH  067%=      5-min Rain = 0
KCR1 121338Z 33006KT M08/M13 A3034 RMK A01 T10791129  RH  067%=      5-min Rain = 0
KCR1 121339Z 33006KT M08/M13 A3034 RMK A01 T10791128  RH  067%=      5-min Rain = 0
KCR1 121340Z 33006KT M08/M13 A3034 RMK A01 T10791128  RH  067%=      5-min Rain = 0
KCR1 121341Z 33006KT M08/M13 A3035 RMK A01 T10791129  RH  068%=      5-min Rain = 0
KCR1 121342Z 34006KT M08/M13 A3035 RMK A01 T10791128  RH  068%=      5-min Rain = 0
KCR1 121343Z 34007KT M08/M13 A3035 RMK A01 T10791128  RH  068%=      5-min Rain = 0
KCR1 121344Z 33006KT M08/M13 A3035 RMK A01 T10791128  RH  068%=      5-min Rain = 0
KCR1 121345Z 33006KT M08/M13 A3035 RMK A01 T10791128  RH  068%=      5-min Rain = 0
KCR1 121346Z 33006KT M08/M13 A3035 RMK A01 T10791128  RH  068%=      5-min Rain = 0
KCR1 121347Z 33007KT M08/M13 A3035 RMK A01 T10791128  RH  068%=      5-min Rain = 0
KCR1 121348Z 33007KT M08/M13 A3035 RMK A01 T10791128  RH  068%=      5-min Rain = 0
KCR1 121349Z 33007KT M08/M13 A3035 RMK A01 T10781127  RH  068%=      5-min Rain = 0
KCR1 121350Z 33007KT M08/M13 A3035 RMK A01 T10771127  RH  067%=      5-min Rain = 0
KCR1 121351Z 33008KT M08/M13 A3035 RMK A01 T10771128  RH  067%=      5-min Rain = 0
KCR1 121352Z 33008KT M08/M13 A3035 RMK A01 T10771128  RH  067%=      5-min Rain = 0
KCR1 121353Z 33008KT M08/M13 A3035 RMK A01 T10761128  RH  066%=      5-min Rain = 0
KCR1 121354Z 34008KT M08/M13 A3035 RMK A01 T10761129  RH  066%=      5-min Rain = 0
KCR1 121355Z 34008KT M08/M13 A3035 RMK A01 T10761130  RH  066%=      5-min Rain = 0
KCR1 121356Z 34007KT M08/M13 A3035 RMK A01 T10761130  RH  065%=      5-min Rain = 0
KCR1 121357Z 34007KT M08/M13 A3035 RMK A01 T10761131  RH  065%=      5-min Rain = 0
KCR1 121358Z 34007KT M08/M13 A3035 RMK A01 T10751131  RH  064%=      5-min Rain = 0
KCR1 121359Z 34007KT M08/M13 A3035 RMK A01 T10751131  RH  064%=      5-min Rain = 0
KCR1 121400Z 35007KT M08/M13 A3035 RMK A01 T10761131  RH  064%=      5-min Rain = 0
KCR1 121401Z 35008KT M08/M13 A3035 RMK A01 T10761132  RH  064%=      5-min Rain = 0
KCR1 121402Z 35008KT M08/M13 A3035 RMK A01 T10761132  RH  064%=      5-min Rain = 0
KCR1 121403Z 35008KT M08/M13 A3035 RMK A01 T10761132  RH  064%=      5-min Rain = 0
KCR1 121404Z 35008KT M08/M13 A3035 RMK A01 T10761132  RH  064%=      5-min Rain = 0
KCR1 121405Z 35007KT M08/M13 A3035 RMK A01 T10751132  RH  064%=      5-min Rain = 0
KCR1 121406Z 35007KT M08/M13 A3035 RMK A01 T10751132  RH  064%=      5-min Rain = 0
KCR1 121407Z 35006KT M08/M13 A3035 RMK A01 T10751132  RH  063%=      5-min Rain = 0
KCR1 121408Z 35006KT M07/M13 A3035 RMK A01 T10741133  RH  063%=      5-min Rain = 0
KCR1 121409Z 36006KT M07/M13 A3035 RMK A01 T10741133  RH  063%=      5-min Rain = 0
KCR1 121410Z 36007KT M07/M13 A3035 RMK A01 T10731133  RH  062%=      5-min Rain = 0
KCR1 121411Z 36006KT M07/M13 A3035 RMK A01 T10731134  RH  062%=      5-min Rain = 0
KCR1 121412Z 00007KT M07/M13 A3035 RMK A01 T10721134  RH  061%=      5-min Rain = 0
KCR1 121413Z 00007KT M07/M13 A3035 RMK A01 T10721134  RH  061%=      5-min Rain = 0
KCR1 121414Z 00008KT M07/M13 A3035 RMK A01 T10711134  RH  061%=      5-min Rain = 0
KCR1 121415Z 36008KT M07/M13 A3035 RMK A01 T10711134  RH  061%=      5-min Rain = 0
KCR1 121416Z 00008KT M07/M13 A3035 RMK A01 T10701134  RH  061%=      5-min Rain = 0
KCR1 121417Z 36008KT M07/M13 A3036 RMK A01 T10691134  RH  060%=      5-min Rain = 0
KCR1 121418Z 36007KT M07/M13 A3036 RMK A01 T10681133  RH  060%=      5-min Rain = 0
KCR1 121419Z 00008KT M07/M13 A3036 RMK A01 T10681133  RH  060%=      5-min Rain = 0
KCR1 121420Z 00007KT M07/M13 A3036 RMK A01 T10681133  RH  060%=      5-min Rain = 0
KCR1 121421Z 00007KT M07/M13 A3036 RMK A01 T10671133  RH  059%=      5-min Rain = 0
KCR1 121422Z 00007KT M07/M13 A3036 RMK A01 T10671133  RH  059%=      5-min Rain = 0
KCR1 121423Z 36007KT M07/M13 A3036 RMK A01 T10661133  RH  059%=      5-min Rain = 0
KCR1 121424Z 35008KT M07/M13 A3036 RMK A01 T10651132  RH  059%=      5-min Rain = 0
KCR1 121425Z 35008KT M07/M13 A3036 RMK A01 T10651132  RH  059%=      5-min Rain = 0
KCR1 121426Z 35008KT M06/M13 A3036 RMK A01 T10641133  RH  058%=      5-min Rain = 0
KCR1 121427Z 34007KT M06/M13 A3037 RMK A01 T10641133  RH  058%=      5-min Rain = 0
KCR1 121428Z 34006KT M07/M13 A3037 RMK A01 T10651132  RH  059%=      5-min Rain = 0
KCR1 121429Z 34006KT M06/M13 A3037 RMK A01 T10641131  RH  059%=      5-min Rain = 0
KCR1 121430Z 35006KT M06/M13 A3037 RMK A01 T10641131  RH  059%=      5-min Rain = 0
KCR1 121431Z 35006KT M06/M13 A3037 RMK A01 T10641130  RH  059%=      5-min Rain = 0
KCR1 121432Z 35006KT M06/M13 A3037 RMK A01 T10641131  RH  059%=      5-min Rain = 0
KCR1 121433Z 35007KT M06/M13 A3037 RMK A01 T10631131  RH  059%=      5-min Rain = 0
KCR1 121434Z 35007KT M06/M13 A3037 RMK A01 T10631131  RH  059%=      5-min Rain = 0
KCR1 121435Z 36007KT M06/M13 A3037 RMK A01 T10631131  RH  058%=      5-min Rain = 0
KCR1 121436Z 00008KT M06/M13 A3037 RMK A01 T10621132  RH  058%=      5-min Rain = 0
KCR1 121437Z 36008KT M06/M13 A3037 RMK A01 T10621133  RH  058%=      5-min Rain = 0
KCR1 121438Z 00008KT M06/M13 A3037 RMK A01 T10621133  RH  057%=      5-min Rain = 0
KCR1 121439Z 01008KT M06/M13 A3037 RMK A01 T10621133  RH  057%=      5-min Rain = 0
KCR1 121440Z 01006KT M06/M13 A3037 RMK A01 T10611132  RH  057%=      5-min Rain = 0
KCR1 121441Z 00008KT M06/M13 A3037 RMK A01 T10601132  RH  057%=      5-min Rain = 0
KCR1 121442Z 36007KT M06/M13 A3037 RMK A01 T10591133  RH  056%=      5-min Rain = 0
KCR1 121443Z 36008KT M06/M13 A3037 RMK A01 T10591133  RH  056%=      5-min Rain = 0
KCR1 121444Z 36008KT M06/M13 A3037 RMK A01 T10591133  RH  056%=      5-min Rain = 0
KCR1 121445Z 00008KT M06/M13 A3037 RMK A01 T10591133  RH  056%=      5-min Rain = 0
KCR1 121446Z 01007KT M06/M13 A3037 RMK A01 T10591133  RH  056%=      5-min Rain = 0
KCR1 121447Z 01007KT M06/M13 A3037 RMK A01 T10581132  RH  056%=      5-min Rain = 0
KCR1 121448Z 01007KT M06/M13 A3037 RMK A01 T10571131  RH  056%=      5-min Rain = 0
KCR1 121449Z 00007KT M06/M13 A3037 RMK A01 T10571131  RH  056%=      5-min Rain = 0
KCR1 121450Z 00008KT M06/M13 A3037 RMK A01 T10571132  RH  055%=      5-min Rain = 0
KCR1 121451Z 01007KT M06/M13 A3037 RMK A01 T10571132  RH  055%=      5-min Rain = 0
KCR1 121452Z 01007KT M06/M13 A3037 RMK A01 T10561132  RH  055%=      5-min Rain = 0
KCR1 121453Z 00006KT M06/M13 A3037 RMK A01 T10571132  RH  055%=      5-min Rain = 0
KCR1 121454Z 01007KT M06/M13 A3037 RMK A01 T10571131  RH  056%=      5-min Rain = 0
KCR1 121455Z 00007KT M06/M13 A3037 RMK A01 T10561131  RH  056%=      5-min Rain = 0
KCR1 121456Z 35007KT M06/M13 A3037 RMK A01 T10551131  RH  055%=      5-min Rain = 0
KCR1 121457Z 36007KT M06/M13 A3037 RMK A01 T10551130  RH  055%=      5-min Rain = 0
KCR1 121458Z 00007KT M05/M13 A3038 RMK A01 T10541130  RH  055%=      5-min Rain = 0
KCR1 121459Z 00007KT M05/M13 A3038 RMK A01 T10531129  RH  055%=      5-min Rain = 0
KCR1 121500Z 36008KT M05/M13 A3038 RMK A01 T10521130  RH  055%=      5-min Rain = 0
KCR1 121501Z 00008KT M05/M13 A3038 RMK A01 T10521129  RH  055%=      5-min Rain = 0
KCR1 121502Z 35007KT M05/M13 A3038 RMK A01 T10511128  RH  055%=      5-min Rain = 0
KCR1 121503Z 35008KT M05/M13 A3038 RMK A01 T10501128  RH  054%=      5-min Rain = 0
KCR1 121504Z 36007KT M05/M13 A3038 RMK A01 T10521130  RH  054%=      5-min Rain = 0
KCR1 121505Z 35007KT M05/M13 A3038 RMK A01 T10521130  RH  054%=      5-min Rain = 0
KCR1 121506Z 34007KT M05/M13 A3038 RMK A01 T10511128  RH  055%=      5-min Rain = 0
KCR1 121507Z 35008KT M05/M13 A3038 RMK A01 T10501128  RH  054%=      5-min Rain = 0
KCR1 121508Z 35008KT M05/M13 A3038 RMK A01 T10501129  RH  054%=      5-min Rain = 0
KCR1 121509Z 35008KT M05/M13 A3038 RMK A01 T10501130  RH  053%=      5-min Rain = 0
KCR1 121510Z 00008KT M05/M13 A3038 RMK A01 T10501132  RH  053%=      5-min Rain = 0
KCR1 121511Z 35007KT M05/M13 A3038 RMK A01 T10501131  RH  053%=      5-min Rain = 0
KCR1 121512Z 35007KT M05/M13 A3038 RMK A01 T10501130  RH  053%=      5-min Rain = 0
KCR1 121513Z 35008KT M05/M13 A3038 RMK A01 T10501130  RH  053%=      5-min Rain = 0
KCR1 121514Z 36007KT M05/M13 A3038 RMK A01 T10501131  RH  053%=      5-min Rain = 0
KCR1 121515Z 00006KT M05/M13 A3038 RMK A01 T10491132  RH  053%=      5-min Rain = 0
KCR1 121516Z 01007KT M05/M13 A3039 RMK A01 T10491129  RH  053%=      5-min Rain = 0
KCR1 121517Z 35006KT M05/M13 A3039 RMK A01 T10481130  RH  053%=      5-min Rain = 0
KCR1 121518Z 35007KT M05/M13 A3039 RMK A01 T10481130  RH  053%=      5-min Rain = 0
KCR1 121519Z 35008KT M05/M13 A3038 RMK A01 T10471132  RH  051%=      5-min Rain = 0
KCR1 121520Z 35006KT M05/M14 A3038 RMK A01 T10471135  RH  050%=      5-min Rain = 0
KCR1 121521Z 35006KT M05/M14 A3038 RMK A01 T10471136  RH  050%=      5-min Rain = 0
KCR1 121522Z 35006KT M05/M14 A3038 RMK A01 T10471136  RH  050%=      5-min Rain = 0
KCR1 121523Z 35006KT M05/M14 A3038 RMK A01 T10461136  RH  049%=      5-min Rain = 0
KCR1 121524Z 35006KT M05/M14 A3038 RMK A01 T10461136  RH  049%=      5-min Rain = 0
KCR1 121525Z 35007KT M05/M14 A3039 RMK A01 T10451136  RH  049%=      5-min Rain = 0
KCR1 121526Z 35006KT M05/M14 A3039 RMK A01 T10461137  RH  049%=      5-min Rain = 0
KCR1 121527Z 34007KT M05/M14 A3039 RMK A01 T10451137  RH  049%=      5-min Rain = 0
KCR1 121528Z 34007KT M05/M14 A3039 RMK A01 T10451136  RH  049%=      5-min Rain = 0
KCR1 121529Z 34005KT M04/M14 A3039 RMK A01 T10441137  RH  048%=      5-min Rain = 0
KCR1 121530Z 34005KT M05/M14 A3039 RMK A01 T10451137  RH  048%=      5-min Rain = 0
KCR1 121531Z 36005KT M04/M14 A3039 RMK A01 T10441135  RH  049%=      5-min Rain = 0
KCR1 121532Z 01005KT M04/M14 A3039 RMK A01 T10431137  RH  048%=      5-min Rain = 0
KCR1 121533Z 01005KT M04/M14 A3039 RMK A01 T10431138  RH  048%=      5-min Rain = 0
KCR1 121534Z 35006KT M04/M14 A3038 RMK A01 T10431136  RH  048%=      5-min Rain = 0
KCR1 121535Z 34005KT M04/M14 A3038 RMK A01 T10421136  RH  048%=      5-min Rain = 0
KCR1 121536Z 01004KT M04/M14 A3038 RMK A01 T10421137  RH  048%=      5-min Rain = 0
KCR1 121537Z 02005KT M04/M14 A3038 RMK A01 T10421137  RH  048%=      5-min Rain = 0
KCR1 121538Z 02005KT M04/M14 A3038 RMK A01 T10411138  RH  047%=      5-min Rain = 0
KCR1 121539Z 03005KT M04/M14 A3038 RMK A01 T10411139  RH  046%=      5-min Rain = 0
KCR1 121540Z 03006KT M04/M14 A3038 RMK A01 T10391140  RH  046%=      5-min Rain = 0
KCR1 121541Z 04007KT M04/M14 A3038 RMK A01 T10391142  RH  044%=      5-min Rain = 0
KCR1 121542Z 04006KT M04/M15 A3038 RMK A01 T10381145  RH  043%=      5-min Rain = 0
KCR1 121543Z 02004KT M04/M15 A3038 RMK A01 T10361146  RH  042%=      5-min Rain = 0
KCR1 121544Z 02005KT M04/M14 A3038 RMK A01 T10351143  RH  043%=      5-min Rain = 0
KCR1 121545Z 02005KT M04/M14 A3038 RMK A01 T10351143  RH  043%=      5-min Rain = 0
KCR1 121546Z 03007KT M04/M15 A3038 RMK A01 T10371145  RH  043%=      5-min Rain = 0
KCR1 121547Z 04005KT M04/M15 A3038 RMK A01 T10381147  RH  043%=      5-min Rain = 0
KCR1 121548Z 04005KT M04/M15 A3038 RMK A01 T10371146  RH  043%=      5-min Rain = 0
KCR1 121549Z 04005KT M04/M14 A3038 RMK A01 T10361142  RH  043%=      5-min Rain = 0
KCR1 121550Z 04005KT M04/M14 A3038 RMK A01 T10361143  RH  043%=      5-min Rain = 0
KCR1 121551Z 04004KT M04/M14 A3038 RMK A01 T10351141  RH  044%=      5-min Rain = 0
KCR1 121552Z 03004KT M04/M14 A3038 RMK A01 T10351141  RH  044%=      5-min Rain = 0
KCR1 121553Z 02006KT M03/M14 A3038 RMK A01 T10341141  RH  043%=      5-min Rain = 0
KCR1 121554Z 02004KT M03/M14 A3038 RMK A01 T10341142  RH  043%=      5-min Rain = 0
KCR1 121555Z 01004KT M03/M14 A3038 RMK A01 T10331141  RH  043%=      5-min Rain = 0
KCR1 121556Z 35004KT M03/M14 A3038 RMK A01 T10331143  RH  042%=      5-min Rain = 0
KCR1 121557Z 34004KT M03/M15 A3038 RMK A01 T10341145  RH  042%=      5-min Rain = 0
KCR1 121558Z 00004KT M04/M15 A3038 RMK A01 T10351145  RH  042%=      5-min Rain = 0
KCR1 121559Z 03005KT M04/M14 A3038 RMK A01 T10351144  RH  043%=      5-min Rain = 0
KCR1 121600Z 05005KT M03/M14 A3038 RMK A01 T10331142  RH  043%=      5-min Rain = 0
KCR1 121601Z 04004KT M03/M14 A3038 RMK A01 T10321144  RH  042%=      5-min Rain = 0
KCR1 121602Z 05005KT M03/M14 A3038 RMK A01 T10331143  RH  042%=      5-min Rain = 0
KCR1 121603Z 04006KT M03/M14 A3038 RMK A01 T10321141  RH  043%=      5-min Rain = 0
KCR1 121604Z 04005KT M03/M14 A3038 RMK A01 T10321142  RH  043%=      5-min Rain = 0
KCR1 121605Z 04006KT M03/M14 A3038 RMK A01 T10311140  RH  043%=      5-min Rain = 0
KCR1 121606Z 03005KT M03/M14 A3038 RMK A01 T10311141  RH  042%=      5-min Rain = 0
KCR1 121607Z 03005KT M03/M14 A3038 RMK A01 T10311141  RH  042%=      5-min Rain = 0
KCR1 121608Z 02004KT M03/M14 A3038 RMK A01 T10311142  RH  042%=      5-min Rain = 0
KCR1 121609Z 02004KT M03/M14 A3038 RMK A01 T10321143  RH  042%=      5-min Rain = 0
KCR1 121610Z 04005KT M03/M14 A3038 RMK A01 T10321141  RH  043%=      5-min Rain = 0
KCR1 121611Z 04005KT M03/M14 A3038 RMK A01 T10311141  RH  042%=      5-min Rain = 0
KCR1 121612Z 04005KT M03/M14 A3038 RMK A01 T10311142  RH  042%=      5-min Rain = 0
KCR1 121613Z 02004KT M03/M14 A3038 RMK A01 T10321141  RH  043%=      5-min Rain = 0
KCR1 121614Z 01004KT M03/M14 A3038 RMK A01 T10331141  RH  043%=      5-min Rain = 0
KCR1 121615Z 02004KT M03/M14 A3038 RMK A01 T10331141  RH  043%=      5-min Rain = 0
KCR1 121616Z 03004KT M03/M14 A3038 RMK A01 T10331140  RH  043%=      5-min Rain = 0
KCR1 121617Z 03006KT M03/M14 A3038 RMK A01 T10311138  RH  044%=      5-min Rain = 0
KCR1 121618Z 02005KT M03/M14 A3038 RMK A01 T10311139  RH  043%=      5-min Rain = 0
KCR1 121619Z 03005KT M03/M14 A3038 RMK A01 T10311139  RH  043%=      5-min Rain = 0
KCR1 121620Z 03005KT M03/M14 A3038 RMK A01 T10301139  RH  043%=      5-min Rain = 0
KCR1 121621Z 02005KT M03/M14 A3038 RMK A01 T10291139  RH  042%=      5-min Rain = 0
KCR1 121622Z 01003KT M03/M14 A3038 RMK A01 T10291140  RH  042%=      5-min Rain = 0
KCR1 121623Z 04003KT M03/M14 A3038 RMK A01 T10301140  RH  042%=      5-min Rain = 0
KCR1 121624Z 04003KT M03/M14 A3038 RMK A01 T10291137  RH  043%=      5-min Rain = 0
KCR1 121625Z 06005KT M03/M13 A3038 RMK A01 T10261134  RH  043%=      5-min Rain = 0
KCR1 121626Z 05006KT M03/M14 A3038 RMK A01 T10251137  RH  042%=      5-min Rain = 0
KCR1 121627Z 06006KT M03/M14 A3038 RMK A01 T10261138  RH  042%=      5-min Rain = 0
KCR1 121628Z 05005KT M03/M14 A3038 RMK A01 T10271138  RH  042%=      5-min Rain = 0
KCR1 121629Z 04003KT M03/M14 A3038 RMK A01 T10281137  RH  043%=      5-min Rain = 0
KCR1 121630Z 07004KT M03/M14 A3038 RMK A01 T10271137  RH  043%=      5-min Rain = 0
KCR1 121631Z 04007KT M02/M14 A3038 RMK A01 T10241135  RH  043%=      5-min Rain = 0
KCR1 121632Z 05006KT M02/M14 A3038 RMK A01 T10231135  RH  042%=      5-min Rain = 0
KCR1 121633Z 04004KT M02/M14 A3038 RMK A01 T10231136  RH  042%=      5-min Rain = 0
KCR1 121634Z 08004KT M02/M14 A3038 RMK A01 T10231137  RH  042%=      5-min Rain = 0
KCR1 121635Z 10004KT M02/M14 A3038 RMK A01 T10241139  RH  041%=      5-min Rain = 0
KCR1 121636Z 06004KT M02/M14 A3038 RMK A01 T10241139  RH  041%=      5-min Rain = 0
KCR1 121637Z 03003KT M02/M14 A3038 RMK A01 T10221137  RH  041%=      5-min Rain = 0
KCR1 121638Z 04004KT M02/M14 A3038 RMK A01 T10221138  RH  041%=      5-min Rain = 0
KCR1 121639Z 02004KT M02/M14 A3038 RMK A01 T10221138  RH  041%=      5-min Rain = 0
KCR1 121640Z 03004KT M02/M14 A3038 RMK A01 T10221138  RH  041%=      5-min Rain = 0
KCR1 121641Z 03003KT M02/M14 A3038 RMK A01 T10221135  RH  042%=      5-min Rain = 0
KCR1 121642Z 35003KT M02/M14 A3038 RMK A01 T10211136  RH  041%=      5-min Rain = 0
KCR1 121643Z 34003KT M02/M14 A3038 RMK A01 T10211135  RH  041%=      5-min Rain = 0
KCR1 121644Z 32002KT M02/M13 A3038 RMK A01 T10211134  RH  041%=      5-min Rain = 0
KCR1 121645Z 35004KT M02/M13 A3038 RMK A01 T10211133  RH  042%=      5-min Rain = 0
KCR1 121646Z 00004KT M02/M13 A3038 RMK A01 T10201134  RH  041%=      5-min Rain = 0
KCR1 121647Z 36003KT M02/M14 A3038 RMK A01 T10221138  RH  041%=      5-min Rain = 0
KCR1 121648Z 32002KT M02/M14 A3038 RMK A01 T10241138  RH  041%=      5-min Rain = 0
KCR1 121649Z 28001KT M02/M14 A3038 RMK A01 T10241137  RH  042%=      5-min Rain = 0
KCR1 121650Z 31001KT M02/M14 A3038 RMK A01 T10231136  RH  042%=      5-min Rain = 0
KCR1 121651Z 05002KT M02/M14 A3038 RMK A01 T10211135  RH  041%=      5-min Rain = 0
KCR1 121652Z 06003KT M02/M13 A3038 RMK A01 T10191133  RH  041%=      5-min Rain = 0
KCR1 121653Z 01004KT M02/M13 A3038 RMK A01 T10171130  RH  042%=      5-min Rain = 0
KCR1 121654Z 01004KT M02/M13 A3038 RMK A01 T10151131  RH  041%=      5-min Rain = 0
KCR1 121655Z 01003KT M02/M13 A3038 RMK A01 T10151134  RH  040%=      5-min Rain = 0
KCR1 121656Z 04001KT M02/M13 A3038 RMK A01 T10151133  RH  040%=      5-min Rain = 0
KCR1 121657Z 35003KT M02/M13 A3038 RMK A01 T10151133  RH  040%=      5-min Rain = 0
KCR1 121658Z 35004KT M01/M14 A3038 RMK A01 T10141135  RH  039%=      5-min Rain = 0
KCR1 121659Z 34004KT M02/M13 A3038 RMK A01 T10151134  RH  040%=      5-min Rain = 0
KCR1 121700Z 34005KT M02/M14 A3038 RMK A01 T10151135  RH  040%=      5-min Rain = 0
KCR1 121701Z 34003KT M02/M14 A3038 RMK A01 T10181137  RH  040%=      5-min Rain = 0
KCR1 121702Z 30004KT M02/M14 A3038 RMK A01 T10191135  RH  041%=      5-min Rain = 0
KCR1 121703Z 28003KT M02/M14 A3037 RMK A01 T10191135  RH  041%=      5-min Rain = 0
KCR1 121704Z 28002KT M02/M14 A3037 RMK A01 T10191135  RH  041%=      5-min Rain = 0
KCR1 121705Z 35003KT M02/M14 A3037 RMK A01 T10181135  RH  041%=      5-min Rain = 0
KCR1 121706Z 36005KT M02/M13 A3038 RMK A01 T10171133  RH  041%=      5-min Rain = 0
KCR1 121707Z 35003KT M02/M13 A3038 RMK A01 T10161132  RH  041%=      5-min Rain = 0
KCR1 121708Z 35003KT M02/M13 A3038 RMK A01 T10161133  RH  041%=      5-min Rain = 0
KCR1 121709Z 00005KT M01/M13 A3037 RMK A01 T10141132  RH  040%=      5-min Rain = 0
KCR1 121710Z 35005KT M01/M13 A3037 RMK A01 T10141134  RH  039%=      5-min Rain = 0
KCR1 121711Z 36004KT M02/M14 A3037 RMK A01 T10161136  RH  039%=      5-min Rain = 0
KCR1 121712Z 00004KT M02/M14 A3037 RMK A01 T10161137  RH  039%=      5-min Rain = 0
KCR1 121713Z 01003KT M02/M14 A3037 RMK A01 T10171136  RH  040%=      5-min Rain = 0
KCR1 121714Z 01003KT M02/M14 A3037 RMK A01 T10171135  RH  040%=      5-min Rain = 0
KCR1 121715Z 01004KT M02/M13 A3037 RMK A01 T10161133  RH  041%=      5-min Rain = 0
KCR1 121716Z 05003KT M02/M13 A3037 RMK A01 T10151132  RH  040%=      5-min Rain = 0
KCR1 121717Z 10002KT M01/M13 A3037 RMK A01 T10121130  RH  040%=      5-min Rain = 0
KCR1 121718Z 08002KT M01/M13 A3036 RMK A01 T10091129  RH  040%=      5-min Rain = 0
KCR1 121719Z 36002KT M01/M13 A3036 RMK A01 T10071131  RH  039%=      5-min Rain = 0
KCR1 121720Z 35003KT M01/M13 A3036 RMK A01 T10081133  RH  038%=      5-min Rain = 0
KCR1 121721Z 35004KT M01/M13 A3037 RMK A01 T10091134  RH  038%=      5-min Rain = 0
KCR1 121722Z 35003KT M01/M14 A3037 RMK A01 T10091135  RH  038%=      5-min Rain = 0
KCR1 121723Z 00005KT M01/M13 A3037 RMK A01 T10101134  RH  038%=      5-min Rain = 0
KCR1 121724Z 02005KT M01/M13 A3037 RMK A01 T10091132  RH  039%=      5-min Rain = 0
KCR1 121725Z 02005KT M01/M13 A3036 RMK A01 T10091133  RH  039%=      5-min Rain = 0
KCR1 121726Z 02003KT M01/M14 A3036 RMK A01 T10101135  RH  038%=      5-min Rain = 0
KCR1 121727Z 01003KT M01/M14 A3036 RMK A01 T10111135  RH  038%=      5-min Rain = 0
KCR1 121728Z 00007KT M01/M13 A3036 RMK A01 T10111133  RH  039%=      5-min Rain = 0
KCR1 121729Z 00005KT M01/M13 A3037 RMK A01 T10101134  RH  039%=      5-min Rain = 0
KCR1 121730Z 36003KT M01/M13 A3037 RMK A01 T10111134  RH  039%=      5-min Rain = 0
KCR1 121731Z 32002KT M01/M13 A3036 RMK A01 T10111134  RH  039%=      5-min Rain = 0
KCR1 121732Z 34003KT M01/M13 A3036 RMK A01 T10101133  RH  039%=      5-min Rain = 0
KCR1 121733Z 34001KT M01/M13 A3036 RMK A01 T10101134  RH  038%=      5-min Rain = 0
KCR1 121734Z 30001KT M01/M13 A3036 RMK A01 T10091134  RH  038%=      5-min Rain = 0
KCR1 121735Z 17001KT M01/M13 A3036 RMK A01 T10071132  RH  038%=      5-min Rain = 0
KCR1 121736Z 09002KT M01/M13 A3036 RMK A01 T10051132  RH  037%=      5-min Rain = 0
KCR1 121737Z 07002KT M00/M14 A3036 RMK A01 T10041135  RH  037%=      5-min Rain = 0
KCR1 121738Z 03002KT M01/M14 A3036 RMK A01 T10071138  RH  036%=      5-min Rain = 0
KCR1 121739Z 02003KT M01/M14 A3036 RMK A01 T10071137  RH  037%=      5-min Rain = 0
KCR1 121740Z 01004KT M01/M14 A3035 RMK A01 T10071137  RH  037%=      5-min Rain = 0
KCR1 121741Z 04003KT M01/M14 A3035 RMK A01 T10071137  RH  037%=      5-min Rain = 0
KCR1 121742Z 07002KT M01/M14 A3035 RMK A01 T10071137  RH  037%=      5-min Rain = 0
KCR1 121743Z 02001KT M01/M14 A3035 RMK A01 T10071138  RH  036%=      5-min Rain = 0
KCR1 121744Z 04004KT M01/M14 A3035 RMK A01 T10061136  RH  037%=      5-min Rain = 0
KCR1 121745Z 03004KT M00/M13 A3035 RMK A01 T10031134  RH  036%=      5-min Rain = 0
KCR1 121746Z 04006KT M00/M13 A3035 RMK A01 T10021134  RH  036%=      5-min Rain = 0
KCR1 121747Z 05006KT 00/M13 A3035 RMK A01 T00021132  RH  036%=      5-min Rain = 0
KCR1 121748Z 06004KT 00/M13 A3034 RMK A01 T00021134  RH  035%=      5-min Rain = 0
KCR1 121749Z 07004KT 00/M14 A3034 RMK A01 T00011135  RH  035%=      5-min Rain = 0
KCR1 121750Z 06004KT 00/14 A3034 RMK A01 T00-00-136  RH  035%=      5-min Rain = 0
KCR1 121751Z 07004KT M00/M14 A3034 RMK A01 T10011136  RH  035%=      5-min Rain = 0
KCR1 121752Z 09002KT M00/M14 A3034 RMK A01 T10011137  RH  035%=      5-min Rain = 0
KCR1 121753Z 04002KT M00/M14 A3034 RMK A01 T10011137  RH  035%=      5-min Rain = 0
KCR1 121754Z 03004KT 00/M13 A3034 RMK A01 T00021132  RH  036%=      5-min Rain = 0
KCR1 121755Z 03004KT 00/M13 A3034 RMK A01 T00041133  RH  035%=      5-min Rain = 0
KCR1 121756Z 07005KT 00/M14 A3034 RMK A01 T00041135  RH  035%=      5-min Rain = 0
KCR1 121757Z 04004KT 00/M14 A3033 RMK A01 T00021136  RH  035%=      5-min Rain = 0
KCR1 121758Z 03003KT 00/M14 A3033 RMK A01 T00021135  RH  035%=      5-min Rain = 0
KCR1 121759Z 02003KT 00/M14 A3033 RMK A01 T00021136  RH  035%=      5-min Rain = 0
KCR1 121800Z 35004KT 00/14 A3033 RMK A01 T00000-137  RH  035%=      5-min Rain = 0
KCR1 121801Z 08002KT M00/M14 A3033 RMK A01 T10021137  RH  035%=      5-min Rain = 0
KCR1 121802Z 09004KT 00/M13 A3033 RMK A01 T00011132  RH  036%=      5-min Rain = 0
KCR1 121803Z 12001KT 01/M13 A3033 RMK A01 T00051131  RH  035%=      5-min Rain = 0
KCR1 121804Z 12003KT 01/M13 A3033 RMK A01 T00061133  RH  034%=      5-min Rain = 0
KCR1 121805Z 11004KT 01/M13 A3033 RMK A01 T00071134  RH  034%=      5-min Rain = 0
KCR1 121806Z 11003KT 01/M14 A3033 RMK A01 T00051135  RH  034%=      5-min Rain = 0
KCR1 121807Z 07004KT 00/M14 A3033 RMK A01 T00041135  RH  034%=      5-min Rain = 0
KCR1 121808Z 09003KT 00/M14 A3032 RMK A01 T00031135  RH  034%=      5-min Rain = 0
KCR1 121809Z 11003KT 00/M14 A3032 RMK A01 T00021136  RH  035%=      5-min Rain = 0
KCR1 121810Z 13003KT 00/M14 A3032 RMK A01 T00011137  RH  035%=      5-min Rain = 0
KCR1 121811Z 13002KT 00/M14 A3032 RMK A01 T00021135  RH  035%=      5-min Rain = 0
KCR1 121812Z 12003KT 00/M13 A3032 RMK A01 T00031134  RH  035%=      5-min Rain = 0
KCR1 121813Z 14002KT 00/M14 A3032 RMK A01 T00041135  RH  034%=      5-min Rain = 0
KCR1 121814Z 09002KT 01/M13 A3032 RMK A01 T00051134  RH  034%=      5-min Rain = 0
KCR1 121815Z 07004KT 01/M14 A3032 RMK A01 T00051135  RH  034%=      5-min Rain = 0
KCR1 121816Z 07003KT 01/M14 A3032 RMK A01 T00051136  RH  034%=      5-min Rain = 0
KCR1 121817Z 08003KT 01/M13 A3031 RMK A01 T00051134  RH  034%=      5-min Rain = 0
KCR1 121818Z 05002KT 01/M13 A3031 RMK A01 T00061134  RH  034%=      5-min Rain = 0
KCR1 121819Z 35002KT 01/M14 A3031 RMK A01 T00061135  RH  034%=      5-min Rain = 0
KCR1 121820Z 32002KT 01/M14 A3031 RMK A01 T00051136  RH  034%=      5-min Rain = 0
KCR1 121821Z 29002KT 01/M14 A3031 RMK A01 T00061135  RH  034%=      5-min Rain = 0
KCR1 121822Z 31000KT 01/M13 A3031 RMK A01 T00071133  RH  034%=      5-min Rain = 0
KCR1 121823Z 34001KT 01/M13 A3031 RMK A01 T00091133  RH  034%=      5-min Rain = 0
KCR1 121824Z 07005KT 01/M13 A3031 RMK A01 T00111131  RH  034%=      5-min Rain = 0
KCR1 121825Z 07004KT 01/M13 A3031 RMK A01 T00121133  RH  033%=      5-min Rain = 0
KCR1 121826Z 04004KT 01/M14 A3031 RMK A01 T00091136  RH  033%=      5-min Rain = 0
KCR1 121827Z 07004KT 01/M14 A3031 RMK A01 T00081135  RH  033%=      5-min Rain = 0
KCR1 121828Z 09002KT 01/M14 A303 RMK A01 T00091135  RH  033%=      5-min Rain = 0
KCR1 121829Z 07001KT 01/M14 A303 RMK A01 T00091136  RH  033%=      5-min Rain = 0
KCR1 121830Z 12001KT 01/M14 A303 RMK A01 T00101136  RH  033%=      5-min Rain = 0
KCR1 121831Z 20000KT 01/M14 A303 RMK A01 T00091137  RH  033%=      5-min Rain = 0
KCR1 121832Z 25000KT 01/M13 A303 RMK A01 T00101134  RH  033%=      5-min Rain = 0
KCR1 121833Z 27001KT 01/M14 A303 RMK A01 T00101135  RH  033%=      5-min Rain = 0
KCR1 121834Z 08002KT 01/M13 A303 RMK A01 T00101134  RH  033%=      5-min Rain = 0
KCR1 121835Z 07004KT 01/M14 A303 RMK A01 T00121135  RH  033%=      5-min Rain = 0
KCR1 121836Z 07003KT 01/M13 A303 RMK A01 T00121134  RH  033%=      5-min Rain = 0
KCR1 121837Z 08004KT 01/M13 A303 RMK A01 T00131134  RH  033%=      5-min Rain = 0
KCR1 121838Z 07004KT 01/M14 A303 RMK A01 T00101138  RH  032%=      5-min Rain = 0
KCR1 121839Z 11004KT 01/M13 A303 RMK A01 T00101134  RH  033%=      5-min Rain = 0
KCR1 121840Z 10003KT 01/M13 A303 RMK A01 T00111133  RH  033%=      5-min Rain = 0
KCR1 121841Z 11003KT 01/M13 A303 RMK A01 T00111133  RH  033%=      5-min Rain = 0
KCR1 121842Z 11002KT 01/M14 A303 RMK A01 T00111135  RH  033%=      5-min Rain = 0
KCR1 121843Z 11003KT 01/M13 A303 RMK A01 T00111134  RH  033%=      5-min Rain = 0
KCR1 121844Z 11003KT 01/M14 A303 RMK A01 T00121135  RH  033%=      5-min Rain = 0
KCR1 121845Z 11002KT 01/M13 A303 RMK A01 T00131133  RH  033%=      5-min Rain = 0
KCR1 121846Z 08001KT 02/M13 A303 RMK A01 T00151134  RH  032%=      5-min Rain = 0
KCR1 121847Z 13002KT 01/M14 A303 RMK A01 T00141135  RH  032%=      5-min Rain = 0
KCR1 121848Z 11002KT 01/M14 A303 RMK A01 T00141135  RH  032%=      5-min Rain = 0
KCR1 121849Z 11004KT 02/M13 A303 RMK A01 T00151134  RH  032%=      5-min Rain = 0
KCR1 121850Z 11002KT 01/M14 A3029 RMK A01 T00131135  RH  032%=      5-min Rain = 0
KCR1 121851Z 14002KT 01/M14 A3029 RMK A01 T00131135  RH  032%=      5-min Rain = 0
KCR1 121852Z 15001KT 01/M13 A3029 RMK A01 T00141133  RH  033%=      5-min Rain = 0
KCR1 121853Z 07001KT 01/M13 A3029 RMK A01 T00141134  RH  032%=      5-min Rain = 0
KCR1 121854Z 06001KT 01/M14 A3029 RMK A01 T00141136  RH  032%=      5-min Rain = 0
KCR1 121855Z 04001KT 01/M14 A3029 RMK A01 T00141135  RH  032%=      5-min Rain = 0
KCR1 121856Z 06002KT 02/M13 A3029 RMK A01 T00151134  RH  032%=      5-min Rain = 0
KCR1 121857Z 05002KT 02/M14 A3029 RMK A01 T00151135  RH  032%=      5-min Rain = 0
KCR1 121858Z 06002KT 02/M14 A3029 RMK A01 T00151135  RH  032%=      5-min Rain = 0
KCR1 121859Z 05002KT 02/M14 A3029 RMK A01 T00151135  RH  032%=      5-min Rain = 0
KCR1 121900Z 05001KT 02/M13 A3029 RMK A01 T00161134  RH  032%=      5-min Rain = 0
KCR1 121901Z 03002KT 02/M13 A3029 RMK A01 T00171132  RH  032%=      5-min Rain = 0
KCR1 121902Z 05002KT 02/M13 A3029 RMK A01 T00181132  RH  032%=      5-min Rain = 0
KCR1 121903Z 02002KT 02/M14 A3029 RMK A01 T00161135  RH  032%=      5-min Rain = 0
KCR1 121904Z 01003KT 02/M13 A3029 RMK A01 T00151134  RH  032%=      5-min Rain = 0
KCR1 121905Z 35002KT 02/M13 A3029 RMK A01 T00151133  RH  032%=      5-min Rain = 0
KCR1 121906Z 33002KT 01/M13 A3029 RMK A01 T00141133  RH  032%=      5-min Rain = 0
KCR1 121907Z 33001KT 02/M13 A3029 RMK A01 T00151133  RH  032%=      5-min Rain = 0
KCR1 121908Z 10003KT 02/M13 A3029 RMK A01 T00171132  RH  032%=      5-min Rain = 0
KCR1 121909Z 10003KT 02/M13 A3029 RMK A01 T00181133  RH  032%=      5-min Rain = 0
KCR1 121910Z 10004KT 02/M13 A3029 RMK A01 T00191133  RH  031%=      5-min Rain = 0
KCR1 121911Z 07004KT 02/M13 A3029 RMK A01 T00201132  RH  031%=      5-min Rain = 0
KCR1 121912Z 10004KT 02/M13 A3029 RMK A01 T00201134  RH  031%=      5-min Rain = 0
KCR1 121913Z 10003KT 02/M13 A3029 RMK A01 T00201132  RH  031%=      5-min Rain = 0
KCR1 121914Z 09005KT 02/M13 A3029 RMK A01 T00221132  RH  031%=      5-min Rain = 0
KCR1 121915Z 09005KT 02/M13 A3029 RMK A01 T00221133  RH  031%=      5-min Rain = 0
KCR1 121916Z 09005KT 02/M13 A3029 RMK A01 T00211134  RH  031%=      5-min Rain = 0
KCR1 121917Z 08004KT 02/M14 A3028 RMK A01 T00181136  RH  031%=      5-min Rain = 0
KCR1 121918Z 10003KT 02/M14 A3028 RMK A01 T00171135  RH  031%=      5-min Rain = 0
KCR1 121919Z 08003KT 02/M14 A3028 RMK A01 T00171135  RH  032%=      5-min Rain = 0
KCR1 121920Z 07002KT 02/M13 A3028 RMK A01 T00171134  RH  032%=      5-min Rain = 0
KCR1 121921Z 04002KT 02/M13 A3028 RMK A01 T00181134  RH  031%=      5-min Rain = 0
KCR1 121922Z 04003KT 02/M13 A3028 RMK A01 T00181134  RH  031%=      5-min Rain = 0
KCR1 121923Z 04004KT 02/M13 A3028 RMK A01 T00181134  RH  031%=      5-min Rain = 0
KCR1 121924Z 05003KT 02/M13 A3028 RMK A01 T00191134  RH  031%=      5-min Rain = 0
KCR1 121925Z 03003KT 02/M13 A3028 RMK A01 T00191134  RH  031%=      5-min Rain = 0
KCR1 121926Z 03003KT 02/M13 A3028 RMK A01 T00201132  RH  031%=      5-min Rain = 0
KCR1 121927Z 03003KT 02/M13 A3028 RMK A01 T00221132  RH  031%=      5-min Rain = 0
KCR1 121928Z 04003KT 02/M13 A3028 RMK A01 T00231131  RH  031%=      5-min Rain = 0
KCR1 121929Z 10002KT 02/M13 A3027 RMK A01 T00241130  RH  031%=      5-min Rain = 0
KCR1 121930Z 17003KT 03/M13 A3027 RMK A01 T00251130  RH  031%=      5-min Rain = 0
KCR1 121931Z 16003KT 03/M13 A3027 RMK A01 T00271129  RH  031%=      5-min Rain = 0
KCR1 121932Z 14003KT 03/M13 A3027 RMK A01 T00291128  RH  031%=      5-min Rain = 0
KCR1 121933Z 12002KT 03/M13 A3027 RMK A01 T00301129  RH  030%=      5-min Rain = 0
KCR1 121934Z 10003KT 03/M13 A3027 RMK A01 T00321127  RH  030%=      5-min Rain = 0
KCR1 121935Z 11004KT 04/M13 A3027 RMK A01 T00351126  RH  030%=      5-min Rain = 0
KCR1 121936Z 11007KT 03/M13 A3027 RMK A01 T00341129  RH  029%=      5-min Rain = 0
KCR1 121937Z 10006KT 03/M13 A3027 RMK A01 T00311131  RH  029%=      5-min Rain = 0
KCR1 121938Z 09005KT 03/M13 A3027 RMK A01 T00281133  RH  030%=      5-min Rain = 0
KCR1 121939Z 10004KT 03/M13 A3027 RMK A01 T00271132  RH  030%=      5-min Rain = 0
KCR1 121940Z 09004KT 03/M13 A3027 RMK A01 T00261132  RH  030%=      5-min Rain = 0
KCR1 121941Z 10004KT 03/M13 A3027 RMK A01 T00261132  RH  030%=      5-min Rain = 0
KCR1 121942Z 11004KT 03/M13 A3026 RMK A01 T00271132  RH  030%=      5-min Rain = 0
KCR1 121943Z 12003KT 03/M13 A3026 RMK A01 T00261133  RH  030%=      5-min Rain = 0
KCR1 121944Z 13003KT 03/M13 A3026 RMK A01 T00271132  RH  030%=      5-min Rain = 0
KCR1 121945Z 12001KT 03/M13 A3026 RMK A01 T00271133  RH  030%=      5-min Rain = 0
KCR1 121946Z 16001KT 03/M13 A3026 RMK A01 T00291131  RH  030%=      5-min Rain = 0
KCR1 121947Z 14002KT 03/M13 A3026 RMK A01 T00301132  RH  029%=      5-min Rain = 0
KCR1 121948Z 11002KT 03/M13 A3026 RMK A01 T00311131  RH  029%=      5-min Rain = 0
KCR1 121949Z 10003KT 03/M13 A3026 RMK A01 T00331132  RH  029%=      5-min Rain = 0
KCR1 121950Z 12002KT 03/M13 A3026 RMK A01 T00321134  RH  028%=      5-min Rain = 0
KCR1 121951Z 14003KT 03/M14 A3026 RMK A01 T00301135  RH  029%=      5-min Rain = 0
KCR1 121952Z 11003KT 03/M13 A3026 RMK A01 T00311134  RH  029%=      5-min Rain = 0
KCR1 121953Z 09003KT 03/M13 A3026 RMK A01 T00311133  RH  029%=      5-min Rain = 0
KCR1 121954Z 08005KT 03/M13 A3026 RMK A01 T00321133  RH  029%=      5-min Rain = 0
KCR1 121955Z 08003KT 03/M14 A3026 RMK A01 T00301135  RH  028%=      5-min Rain = 0
KCR1 121956Z 12001KT 03/M13 A3026 RMK A01 T00291134  RH  029%=      5-min Rain = 0
KCR1 121957Z 08001KT 03/M13 A3026 RMK A01 T00321132  RH  029%=      5-min Rain = 0
KCR1 121958Z 08004KT 03/M13 A3026 RMK A01 T00341130  RH  029%=      5-min Rain = 0
KCR1 121959Z 09007KT 04/M13 A3026 RMK A01 T00381128  RH  029%=      5-min Rain = 0
KCR1 122000Z 08006KT 04/M13 A3026 RMK A01 T00371133  RH  028%=      5-min Rain = 0
KCR1 122001Z 08005KT 04/M13 A3026 RMK A01 T00351133  RH  028%=      5-min Rain = 0
KCR1 122002Z 08005KT 03/M14 A3026 RMK A01 T00321135  RH  028%=      5-min Rain = 0
KCR1 122003Z 09004KT 03/M13 A3025 RMK A01 T00311134  RH  029%=      5-min Rain = 0
KCR1 122004Z 12004KT 03/M13 A3025 RMK A01 T00311133  RH  029%=      5-min Rain = 0
KCR1 122005Z 13002KT 03/M13 A3025 RMK A01 T00331131  RH  029%=      5-min Rain = 0
KCR1 122006Z 12005KT 04/M13 A3026 RMK A01 T00351132  RH  028%=      5-min Rain = 0
KCR1 122007Z 12006KT 04/M13 A3026 RMK A01 T00351132  RH  028%=      5-min Rain = 0
KCR1 122008Z 10007KT 04/M13 A3026 RMK A01 T00361132  RH  028%=      5-min Rain = 0
KCR1 122009Z 11005KT 04/M13 A3025 RMK A01 T00361132  RH  028%=      5-min Rain = 0
KCR1 122010Z 12006KT 03/M13 A3025 RMK A01 T00341134  RH  028%=      5-min Rain = 0
KCR1 122011Z 11004KT 03/M13 A3025 RMK A01 T00341134  RH  028%=      5-min Rain = 0
KCR1 122012Z 11002KT 03/M13 A3025 RMK A01 T00341134  RH  028%=      5-min Rain = 0
KCR1 122013Z 10005KT 03/M13 A3025 RMK A01 T00341133  RH  028%=      5-min Rain = 0
KCR1 122014Z 08005KT 04/M13 A3025 RMK A01 T00351132  RH  028%=      5-min Rain = 0
KCR1 122015Z 07006KT 04/M13 A3025 RMK A01 T00401130  RH  028%=      5-min Rain = 0
KCR1 122016Z 06003KT 04/M13 A3025 RMK A01 T00401131  RH  028%=      5-min Rain = 0
KCR1 122017Z 10004KT 04/M13 A3025 RMK A01 T00401132  RH  027%=      5-min Rain = 0
KCR1 122018Z 13004KT 04/M13 A3025 RMK A01 T00401132  RH  027%=      5-min Rain = 0
KCR1 122019Z 15004KT 04/M13 A3025 RMK A01 T00421131  RH  027%=      5-min Rain = 0
KCR1 122020Z 11005KT 04/M13 A3025 RMK A01 T00421131  RH  027%=      5-min Rain = 0
KCR1 122021Z 14005KT 04/M13 A3025 RMK A01 T00431130  RH  027%=      5-min Rain = 0
KCR1 122022Z 13007KT 05/M13 A3025 RMK A01 T00451129  RH  027%=      5-min Rain = 0
KCR1 122023Z 15005KT 04/M13 A3025 RMK A01 T00431132  RH  027%=      5-min Rain = 0
KCR1 122024Z 12003KT 04/M13 A3025 RMK A01 T00411133  RH  027%=      5-min Rain = 0
KCR1 122025Z 13003KT 04/M13 A3025 RMK A01 T00411131  RH  027%=      5-min Rain = 0
KCR1 122026Z 13006KT 04/M13 A3025 RMK A01 T00431131  RH  027%=      5-min Rain = 0
KCR1 122027Z 13003KT 04/M13 A3025 RMK A01 T00421132  RH  027%=      5-min Rain = 0
KCR1 122028Z 10004KT 04/M13 A3026 RMK A01 T00421131  RH  027%=      5-min Rain = 0
KCR1 122029Z 10007KT 04/M13 A3026 RMK A01 T00441130  RH  027%=      5-min Rain = 0
KCR1 122030Z 11006KT 04/M13 A3026 RMK A01 T00441132  RH  027%=      5-min Rain = 0
KCR1 122031Z 11006KT 04/M13 A3026 RMK A01 T00411133  RH  027%=      5-min Rain = 0
KCR1 122032Z 14003KT 04/M13 A3025 RMK A01 T00401133  RH  027%=      5-min Rain = 0
KCR1 122033Z 20002KT 04/M13 A3025 RMK A01 T00381134  RH  027%=      5-min Rain = 0
KCR1 122034Z 23001KT 04/M13 A3025 RMK A01 T00381133  RH  027%=      5-min Rain = 0
KCR1 122035Z 08000KT 04/M13 A3025 RMK A01 T00391132  RH  028%=      5-min Rain = 0
KCR1 122036Z 11004KT 04/M13 A3025 RMK A01 T00421129  RH  028%=      5-min Rain = 0
KCR1 122037Z 12006KT 04/M13 A3025 RMK A01 T00421132  RH  027%=      5-min Rain = 0
KCR1 122038Z 14005KT 04/M13 A3025 RMK A01 T00411131  RH  027%=      5-min Rain = 0
KCR1 122039Z 13002KT 04/M13 A3025 RMK A01 T00401132  RH  027%=      5-min Rain = 0
KCR1 122040Z 08002KT 04/M13 A3025 RMK A01 T00411131  RH  027%=      5-min Rain = 0
KCR1 122041Z 09002KT 04/M13 A3025 RMK A01 T00431131  RH  027%=      5-min Rain = 0
KCR1 122042Z 10005KT 04/M13 A3025 RMK A01 T00421133  RH  027%=      5-min Rain = 0
KCR1 122043Z 11005KT 04/M13 A3025 RMK A01 T00431130  RH  027%=      5-min Rain = 0
KCR1 122044Z 11005KT 04/M13 A3025 RMK A01 T00441130  RH  027%=      5-min Rain = 0
KCR1 122045Z 11006KT 04/M13 A3025 RMK A01 T00441131  RH  027%=      5-min Rain = 0
KCR1 122046Z 12003KT 04/M13 A3025 RMK A01 T00421133  RH  027%=      5-min Rain = 0
KCR1 122047Z 14003KT 04/M13 A3025 RMK A01 T00421131  RH  027%=      5-min Rain = 0
KCR1 122048Z 10003KT 04/M13 A3025 RMK A01 T00411132  RH  027%=      5-min Rain = 0
KCR1 122049Z 11003KT 04/M13 A3025 RMK A01 T00431130  RH  027%=      5-min Rain = 0
KCR1 122050Z 09005KT 05/M13 A3025 RMK A01 T00451129  RH  027%=      5-min Rain = 0
KCR1 122051Z 11004KT 04/M13 A3025 RMK A01 T00441131  RH  027%=      5-min Rain = 0
KCR1 122052Z 07004KT 04/M13 A3025 RMK A01 T00411132  RH  027%=      5-min Rain = 0
KCR1 122053Z 08004KT 04/M13 A3025 RMK A01 T00421130  RH  027%=      5-min Rain = 0
KCR1 122054Z 12006KT 04/M13 A3025 RMK A01 T00431131  RH  027%=      5-min Rain = 0
KCR1 122055Z 10007KT 04/M13 A3025 RMK A01 T00431131  RH  027%=      5-min Rain = 0
KCR1 122056Z 14006KT 04/M13 A3025 RMK A01 T00421130  RH  027%=      5-min Rain = 0
KCR1 122057Z 14005KT 04/M13 A3025 RMK A01 T00441129  RH  027%=      5-min Rain = 0
KCR1 122058Z 15004KT 04/M13 A3025 RMK A01 T00441130  RH  027%=      5-min Rain = 0
KCR1 122059Z 17002KT 04/M13 A3025 RMK A01 T00431131  RH  027%=      5-min Rain = 0
KCR1 122100Z 16005KT 04/M13 A3025 RMK A01 T00441128  RH  027%=      5-min Rain = 0
KCR1 122101Z 14005KT 05/M13 A3025 RMK A01 T00451129  RH  027%=      5-min Rain = 0
KCR1 122102Z 15007KT 05/M13 A3025 RMK A01 T00461127  RH  027%=      5-min Rain = 0
KCR1 122103Z 15007KT 05/M13 A3025 RMK A01 T00461129  RH  027%=      5-min Rain = 0
KCR1 122104Z 14005KT 05/M13 A3025 RMK A01 T00451130  RH  027%=      5-min Rain = 0
KCR1 122105Z 14006KT 05/M13 A3025 RMK A01 T00461129  RH  027%=      5-min Rain = 0
KCR1 122106Z 14005KT 05/M13 A3025 RMK A01 T00461130  RH  027%=      5-min Rain = 0
KCR1 122107Z 13003KT 04/M13 A3025 RMK A01 T00441132  RH  026%=      5-min Rain = 0
KCR1 122108Z 13002KT 04/M13 A3025 RMK A01 T00441130  RH  027%=      5-min Rain = 0
KCR1 122109Z 12007KT 05/M13 A3025 RMK A01 T00461128  RH  027%=      5-min Rain = 0
KCR1 122110Z 11007KT 05/M13 A3025 RMK A01 T00461129  RH  027%=      5-min Rain = 0
KCR1 122111Z 12006KT 04/M13 A3025 RMK A01 T00441130  RH  027%=      5-min Rain = 0
KCR1 122112Z 13005KT 04/M13 A3025 RMK A01 T00431130  RH  027%=      5-min Rain = 0
KCR1 122113Z 13005KT 04/M13 A3025 RMK A01 T00441128  RH  027%=      5-min Rain = 0
KCR1 122114Z 14005KT 05/M13 A3025 RMK A01 T00451129  RH  027%=      5-min Rain = 0
KCR1 122115Z 12006KT 05/M13 A3025 RMK A01 T00451129  RH  027%=      5-min Rain = 0
KCR1 122116Z 13007KT 05/M13 A3025 RMK A01 T00471127  RH  027%=      5-min Rain = 0
KCR1 122117Z 14006KT 05/M13 A3025 RMK A01 T00461130  RH  027%=      5-min Rain = 0
KCR1 122118Z 14004KT 05/M13 A3025 RMK A01 T00461128  RH  027%=      5-min Rain = 0
KCR1 122119Z 13004KT 05/M13 A3025 RMK A01 T00481127  RH  027%=      5-min Rain = 0
KCR1 122120Z 12006KT 05/M13 A3025 RMK A01 T00511125  RH  027%=      5-min Rain = 0
KCR1 122121Z 10005KT 05/M13 A3025 RMK A01 T00511128  RH  026%=      5-min Rain = 0
KCR1 122122Z 09007KT 05/M13 A3025 RMK A01 T00491129  RH  026%=      5-min Rain = 0
KCR1 122123Z 10008KT 05/M13 A3025 RMK A01 T00491128  RH  026%=      5-min Rain = 0
KCR1 122124Z 11007KT 05/M13 A3025 RMK A01 T00481128  RH  027%=      5-min Rain = 0
KCR1 122125Z 14006KT 05/M13 A3025 RMK A01 T00481128  RH  027%=      5-min Rain = 0
KCR1 122126Z 13007KT 05/M13 A3025 RMK A01 T00481129  RH  026%=      5-min Rain = 0
KCR1 122127Z 13004KT 05/M13 A3025 RMK A01 T00481129  RH  026%=      5-min Rain = 0
KCR1 122128Z 14004KT 05/M13 A3025 RMK A01 T00491129  RH  026%=      5-min Rain = 0
KCR1 122129Z 12007KT 05/M13 A3025 RMK A01 T00471130  RH  026%=      5-min Rain = 0
KCR1 122130Z 11008KT 05/M13 A3025 RMK A01 T00471130  RH  026%=      5-min Rain = 0
KCR1 122131Z 11007KT 05/M13 A3025 RMK A01 T00471130  RH  026%=      5-min Rain = 0
KCR1 122132Z 10007KT 05/M13 A3025 RMK A01 T00461130  RH  026%=      5-min Rain = 0
KCR1 122133Z 11006KT 05/M13 A3025 RMK A01 T00471129  RH  027%=      5-min Rain = 0
KCR1 122134Z 11005KT 05/M13 A3025 RMK A01 T00481128  RH  027%=      5-min Rain = 0
KCR1 122135Z 10002KT 05/M13 A3025 RMK A01 T00471130  RH  026%=      5-min Rain = 0
KCR1 122136Z 12004KT 05/M13 A3025 RMK A01 T00471129  RH  027%=      5-min Rain = 0
KCR1 122137Z 11008KT 05/M13 A3025 RMK A01 T00491126  RH  027%=      5-min Rain = 0
KCR1 122138Z 11008KT 05/M13 A3025 RMK A01 T00491127  RH  027%=      5-min Rain = 0
KCR1 122139Z 10007KT 05/M13 A3025 RMK A01 T00471129  RH  027%=      5-min Rain = 0
KCR1 122140Z 10005KT 05/M13 A3025 RMK A01 T00461129  RH  027%=      5-min Rain = 0
KCR1 122141Z 12007KT 05/M13 A3025 RMK A01 T00451129  RH  027%=      5-min Rain = 0
KCR1 122142Z 10005KT 05/M13 A3025 RMK A01 T00461128  RH  027%=      5-min Rain = 0
KCR1 122143Z 09005KT 05/M13 A3025 RMK A01 T00451128  RH  027%=      5-min Rain = 0
KCR1 122144Z 09006KT 05/M13 A3025 RMK A01 T00461127  RH  027%=      5-min Rain = 0
KCR1 122145Z 08009KT 05/M13 A3025 RMK A01 T00471127  RH  027%=      5-min Rain = 0
KCR1 122146Z 07007KT 05/M13 A3025 RMK A01 T00471128  RH  027%=      5-min Rain = 0
KCR1 122147Z 07006KT 05/M13 A3025 RMK A01 T00461128  RH  027%=      5-min Rain = 0
KCR1 122148Z 08007KT 05/M13 A3025 RMK A01 T00471127  RH  027%=      5-min Rain = 0
KCR1 122149Z 08005KT 05/M13 A3025 RMK A01 T00481128  RH  027%=      5-min Rain = 0
KCR1 122150Z 11006KT 05/M13 A3025 RMK A01 T00471129  RH  027%=      5-min Rain = 0
KCR1 122151Z 11005KT 05/M13 A3025 RMK A01 T00461129  RH  027%=      5-min Rain = 0
KCR1 122152Z 12006KT 05/M13 A3025 RMK A01 T00461128  RH  027%=      5-min Rain = 0
KCR1 122153Z 12005KT 05/M13 A3025 RMK A01 T00481127  RH  027%=      5-min Rain = 0
KCR1 122154Z 12005KT 05/M13 A3025 RMK A01 T00481128  RH  027%=      5-min Rain = 0
KCR1 122155Z 12006KT 05/M13 A3025 RMK A01 T00481128  RH  027%=      5-min Rain = 0
KCR1 122156Z 10006KT 05/M13 A3025 RMK A01 T00491126  RH  027%=      5-min Rain = 0
KCR1 122157Z 09007KT 05/M13 A3025 RMK A01 T00501126  RH  027%=      5-min Rain = 0
KCR1 122158Z 09005KT 05/M13 A3025 RMK A01 T00481128  RH  027%=      5-min Rain = 0
KCR1 122159Z 07006KT 05/M13 A3025 RMK A01 T00471129  RH  027%=      5-min Rain = 0
KCR1 122200Z 10008KT 05/M13 A3025 RMK A01 T00481128  RH  027%=      5-min Rain = 0
KCR1 122201Z 10007KT 05/M13 A3025 RMK A01 T00481128  RH  027%=      5-min Rain = 0
KCR1 122202Z 09005KT 05/M13 A3025 RMK A01 T00461128  RH  027%=      5-min Rain = 0
KCR1 122203Z 09006KT 05/M13 A3025 RMK A01 T00471127  RH  027%=      5-min Rain = 0
KCR1 122204Z 10008KT 05/M13 A3025 RMK A01 T00491125  RH  027%=      5-min Rain = 0
KCR1 122205Z 09008KT 05/M13 A3025 RMK A01 T00501127  RH  027%=      5-min Rain = 0
KCR1 122206Z 10008KT 05/M13 A3025 RMK A01 T00491128  RH  026%=      5-min Rain = 0
KCR1 122207Z 11006KT 05/M13 A3025 RMK A01 T00481128  RH  027%=      5-min Rain = 0
KCR1 122208Z 10005KT 05/M13 A3025 RMK A01 T00481127  RH  027%=      5-min Rain = 0
KCR1 122209Z 10007KT 05/M13 A3025 RMK A01 T00481127  RH  027%=      5-min Rain = 0
KCR1 122210Z 10007KT 05/M13 A3025 RMK A01 T00481127  RH  027%=      5-min Rain = 0
KCR1 122211Z 09006KT 05/M13 A3025 RMK A01 T00481128  RH  027%=      5-min Rain = 0
KCR1 122212Z 10007KT 05/M13 A3025 RMK A01 T00481127  RH  027%=      5-min Rain = 0
KCR1 122213Z 10006KT 05/M13 A3025 RMK A01 T00471128  RH  027%=      5-min Rain = 0
KCR1 122214Z 11006KT 05/M13 A3025 RMK A01 T00471128  RH  027%=      5-min Rain = 0
KCR1 122215Z 10008KT 05/M13 A3025 RMK A01 T00461128  RH  027%=      5-min Rain = 0
KCR1 122216Z 11008KT 05/M13 A3025 RMK A01 T00461127  RH  027%=      5-min Rain = 0
KCR1 122217Z 09006KT 05/M13 A3025 RMK A01 T00461128  RH  027%=      5-min Rain = 0
KCR1 122218Z 11005KT 05/M13 A3025 RMK A01 T00461128  RH  027%=      5-min Rain = 0
KCR1 122219Z 11007KT 05/M13 A3026 RMK A01 T00471127  RH  027%=      5-min Rain = 0
KCR1 122220Z 10004KT 05/M13 A3026 RMK A01 T00461128  RH  027%=      5-min Rain = 0
KCR1 122221Z 09005KT 05/M13 A3026 RMK A01 T00451128  RH  027%=      5-min Rain = 0
KCR1 122222Z 10007KT 05/M13 A3026 RMK A01 T00461128  RH  027%=      5-min Rain = 0
KCR1 122223Z 10005KT 05/M13 A3026 RMK A01 T00461128  RH  027%=      5-min Rain = 0
KCR1 122224Z 10005KT 05/M13 A3026 RMK A01 T00461128  RH  027%=      5-min Rain = 0
KCR1 122225Z 11004KT 05/M13 A3026 RMK A01 T00461128  RH  027%=      5-min Rain = 0
KCR1 122226Z 08006KT 05/M13 A3026 RMK A01 T00471127  RH  027%=      5-min Rain = 0
KCR1 122227Z 10006KT 05/M13 A3026 RMK A01 T00471128  RH  027%=      5-min Rain = 0
KCR1 122228Z 11006KT 05/M13 A3026 RMK A01 T00471127  RH  027%=      5-min Rain = 0
KCR1 122229Z 10007KT 05/M13 A3026 RMK A01 T00471128  RH  027%=      5-min Rain = 0
KCR1 122230Z 11006KT 05/M13 A3026 RMK A01 T00471129  RH  027%=      5-min Rain = 0
KCR1 122231Z 11005KT 05/M13 A3026 RMK A01 T00461128  RH  027%=      5-min Rain = 0
KCR1 122232Z 11006KT 05/M13 A3026 RMK A01 T00471128  RH  027%=      5-min Rain = 0
KCR1 122233Z 09006KT 05/M13 A3026 RMK A01 T00461129  RH  027%=      5-min Rain = 0
KCR1 122234Z 09007KT 05/M13 A3026 RMK A01 T00461128  RH  027%=      5-min Rain = 0
KCR1 122235Z 10007KT 05/M13 A3026 RMK A01 T00471128  RH  027%=      5-min Rain = 0
KCR1 122236Z 10009KT 05/M13 A3026 RMK A01 T00471129  RH  027%=      5-min Rain = 0
KCR1 122237Z 11008KT 05/M13 A3026 RMK A01 T00461129  RH  027%=      5-min Rain = 0
KCR1 122238Z 12006KT 05/M13 A3026 RMK A01 T00461129  RH  027%=      5-min Rain = 0
KCR1 122239Z 11006KT 05/M13 A3026 RMK A01 T00451129  RH  027%=      5-min Rain = 0
KCR1 122240Z 11008KT 05/M13 A3026 RMK A01 T00451128  RH  027%=      5-min Rain = 0
KCR1 122241Z 10008KT 05/M13 A3026 RMK A01 T00451128  RH  027%=      5-min Rain = 0
KCR1 122242Z 10007KT 05/M13 A3026 RMK A01 T00461127  RH  027%=      5-min Rain = 0
KCR1 122243Z 10006KT 05/M13 A3026 RMK A01 T00461129  RH  027%=      5-min Rain = 0
KCR1 122244Z 09007KT 05/M13 A3026 RMK A01 T00461128  RH  027%=      5-min Rain = 0
KCR1 122245Z 09005KT 05/M13 A3026 RMK A01 T00451129  RH  027%=      5-min Rain = 0
KCR1 122246Z 10005KT 04/M13 A3026 RMK A01 T00441129  RH  027%=      5-min Rain = 0
KCR1 122247Z 11007KT 05/M13 A3026 RMK A01 T00451128  RH  027%=      5-min Rain = 0
KCR1 122248Z 11007KT 05/M13 A3026 RMK A01 T00451127  RH  027%=      5-min Rain = 0
KCR1 122249Z 10006KT 05/M13 A3026 RMK A01 T00451127  RH  027%=      5-min Rain = 0
KCR1 122250Z 10008KT 05/M13 A3026 RMK A01 T00451126  RH  028%=      5-min Rain = 0
KCR1 122251Z 10008KT 05/M13 A3026 RMK A01 T00451127  RH  028%=      5-min Rain = 0
KCR1 122252Z 09008KT 04/M13 A3026 RMK A01 T00441127  RH  028%=      5-min Rain = 0
KCR1 122253Z 09008KT 04/M13 A3027 RMK A01 T00441126  RH  028%=      5-min Rain = 0
KCR1 122254Z 08006KT 04/M13 A3027 RMK A01 T00441127  RH  028%=      5-min Rain = 0
KCR1 122255Z 08006KT 04/M13 A3027 RMK A01 T00441127  RH  028%=      5-min Rain = 0
KCR1 122256Z 08006KT 04/M13 A3027 RMK A01 T00441126  RH  028%=      5-min Rain = 0
KCR1 122257Z 08005KT 05/M13 A3027 RMK A01 T00451125  RH  028%=      5-min Rain = 0
KCR1 122258Z 09006KT 05/M13 A3027 RMK A01 T00451126  RH  028%=      5-min Rain = 0
KCR1 122259Z 11006KT 05/M13 A3027 RMK A01 T00451126  RH  028%=      5-min Rain = 0
KCR1 122300Z 11007KT 05/M13 A3027 RMK A01 T00451126  RH  028%=      5-min Rain = 0
KCR1 122301Z 11008KT 04/M13 A3027 RMK A01 T00441126  RH  028%=      5-min Rain = 0
KCR1 122302Z 10007KT 04/M13 A3027 RMK A01 T00431126  RH  028%=      5-min Rain = 0
KCR1 122303Z 10006KT 04/M13 A3027 RMK A01 T00431126  RH  028%=      5-min Rain = 0
KCR1 122304Z 10006KT 04/M13 A3027 RMK A01 T00421126  RH  028%=      5-min Rain = 0
KCR1 122305Z 09007KT 04/M13 A3027 RMK A01 T00421126  RH  028%=      5-min Rain = 0
KCR1 122306Z 08007KT 04/M13 A3027 RMK A01 T00421126  RH  028%=      5-min Rain = 0
KCR1 122307Z 08006KT 04/M13 A3027 RMK A01 T00421125  RH  028%=      5-min Rain = 0
KCR1 122308Z 08006KT 04/M13 A3027 RMK A01 T00421126  RH  028%=      5-min Rain = 0
KCR1 122309Z 07005KT 04/M13 A3028 RMK A01 T00421126  RH  028%=      5-min Rain = 0
KCR1 122310Z 08004KT 04/M13 A3027 RMK A01 T00421126  RH  028%=      5-min Rain = 0
KCR1 122311Z 09007KT 04/M13 A3027 RMK A01 T00431126  RH  028%=      5-min Rain = 0
KCR1 122312Z 10007KT 04/M13 A3028 RMK A01 T00421126  RH  028%=      5-min Rain = 0
KCR1 122313Z 10007KT 04/M13 A3028 RMK A01 T00421126  RH  028%=      5-min Rain = 0
KCR1 122314Z 10006KT 04/M13 A3028 RMK A01 T00421126  RH  028%=      5-min Rain = 0
KCR1 122315Z 10007KT 04/M13 A3028 RMK A01 T00411126  RH  028%=      5-min Rain = 0
KCR1 122316Z 10005KT 04/M13 A3028 RMK A01 T00411127  RH  028%=      5-min Rain = 0
KCR1 122317Z 08006KT 04/M13 A3028 RMK A01 T00411126  RH  028%=      5-min Rain = 0
KCR1 122318Z 09007KT 04/M13 A3028 RMK A01 T00401126  RH  029%=      5-min Rain = 0
KCR1 122319Z 09007KT 04/M13 A3028 RMK A01 T00401126  RH  029%=      5-min Rain = 0
KCR1 122320Z 09007KT 04/M13 A3028 RMK A01 T00401126  RH  029%=      5-min Rain = 0
KCR1 122321Z 09006KT 04/M13 A3028 RMK A01 T00401126  RH  029%=      5-min Rain = 0
KCR1 122322Z 09006KT 04/M13 A3028 RMK A01 T00391127  RH  029%=      5-min Rain = 0
KCR1 122323Z 09007KT 04/M13 A3028 RMK A01 T00391127  RH  029%=      5-min Rain = 0
KCR1 122324Z 09006KT 04/M13 A3028 RMK A01 T00391126  RH  029%=      5-min Rain = 0
KCR1 122325Z 08005KT 04/M13 A3028 RMK A01 T00381127  RH  029%=      5-min Rain = 0
KCR1 122326Z 08005KT 04/M13 A3028 RMK A01 T00381127  RH  029%=      5-min Rain = 0
KCR1 122327Z 08005KT 04/M13 A3028 RMK A01 T00371127  RH  029%=      5-min Rain = 0
KCR1 122328Z 09005KT 04/M13 A3028 RMK A01 T00361127  RH  029%=      5-min Rain = 0
KCR1 122329Z 09006KT 04/M13 A3028 RMK A01 T00361127  RH  029%=      5-min Rain = 0
KCR1 122330Z 08007KT 04/M13 A3028 RMK A01 T00351126  RH  030%=      5-min Rain = 0
KCR1 122331Z 09007KT 04/M13 A3029 RMK A01 T00351126  RH  030%=      5-min Rain = 0
KCR1 122332Z 08007KT 04/M13 A3029 RMK A01 T00351126  RH  030%=      5-min Rain = 0
KCR1 122333Z 07006KT 03/M13 A3029 RMK A01 T00341126  RH  030%=      5-min Rain = 0
KCR1 122334Z 07006KT 03/M13 A3029 RMK A01 T00341127  RH  030%=      5-min Rain = 0
KCR1 122335Z 08006KT 03/M13 A3029 RMK A01 T00331127  RH  030%=      5-min Rain = 0
KCR1 122336Z 08006KT 03/M13 A3029 RMK A01 T00321128  RH  030%=      5-min Rain = 0
KCR1 122337Z 08006KT 03/M13 A3029 RMK A01 T00321127  RH  030%=      5-min Rain = 0
KCR1 122338Z 08007KT 03/M13 A3029 RMK A01 T00311127  RH  030%=      5-min Rain = 0
KCR1 122339Z 07007KT 03/M13 A3029 RMK A01 T00301128  RH  030%=      5-min Rain = 0
KCR1 122340Z 07006KT 03/M13 A3029 RMK A01 T00301128  RH  030%=      5-min Rain = 0
KCR1 122341Z 07006KT 03/M13 A3029 RMK A01 T00301128  RH  030%=      5-min Rain = 0
KCR1 122342Z 07007KT 03/M13 A3029 RMK A01 T00301129  RH  030%=      5-min Rain = 0
KCR1 122343Z 07006KT 03/M13 A3029 RMK A01 T00291129  RH  030%=      5-min Rain = 0
KCR1 122344Z 07006KT 03/M13 A3029 RMK A01 T00281129  RH  030%=      5-min Rain = 0
KCR1 122345Z 07006KT 03/M13 A3029 RMK A01 T00281129  RH  030%=      5-min Rain = 0
KCR1 122346Z 07007KT 03/M13 A3029 RMK A01 T00271129  RH  031%=      5-min Rain = 0
KCR1 122347Z 07007KT 03/M13 A3029 RMK A01 T00271129  RH  031%=      5-min Rain = 0
KCR1 122348Z 07007KT 03/M13 A3029 RMK A01 T00261130  RH  031%=      5-min Rain = 0
KCR1 122349Z 07007KT 03/M13 A3029 RMK A01 T00261130  RH  031%=      5-min Rain = 0
KCR1 122350Z 07006KT 03/M13 A303 RMK A01 T00251130  RH  031%=      5-min Rain = 0
KCR1 122351Z 07006KT 02/M13 A303 RMK A01 T00241131  RH  031%=      5-min Rain = 0
KCR1 122352Z 07005KT 02/M13 A303 RMK A01 T00231131  RH  031%=      5-min Rain = 0
KCR1 122353Z 06006KT 02/M13 A303 RMK A01 T00211132  RH  031%=      5-min Rain = 0
KCR1 122354Z 07006KT 02/M13 A303 RMK A01 T00201132  RH  031%=      5-min Rain = 0
KCR1 122355Z 07007KT 02/M13 A303 RMK A01 T00201131  RH  032%=      5-min Rain = 0
KCR1 122356Z 07006KT 02/M13 A303 RMK A01 T00201131  RH  032%=      5-min Rain = 0
KCR1 122357Z 07007KT 02/M13 A303 RMK A01 T00191132  RH  032%=      5-min Rain = 0
KCR1 122358Z 07007KT 02/M13 A303 RMK A01 T00191132  RH  032%=      5-min Rain = 0
KCR1 122359Z 06007KT 02/M13 A303 RMK A01 T00181132  RH  032%=      5-min Rain = 0
KCR1 130000Z 07007KT 02/M13 A303 RMK A01 T00181132  RH  032%=      5-min Rain = 0
KCR1 130001Z 06007KT 02/M13 A303 RMK A01 T00181132  RH  032%=      5-min Rain = 0
KCR1 130002Z 06007KT 02/M13 A303 RMK A01 T00171133  RH  032%=      5-min Rain = 0
KCR1 130003Z 07007KT 02/M13 A303 RMK A01 T00161133  RH  032%=      5-min Rain = 0
KCR1 130004Z 07007KT 02/M13 A303 RMK A01 T00161133  RH  032%=      5-min Rain = 0
KCR1 130005Z 07007KT 02/M13 A303 RMK A01 T00151133  RH  032%=      5-min Rain = 0
KCR1 130006Z 07007KT 02/M13 A303 RMK A01 T00151134  RH  032%=      5-min Rain = 0
KCR1 130007Z 07007KT 02/M13 A303 RMK A01 T00151134  RH  032%=      5-min Rain = 0
KCR1 130008Z 07007KT 02/M13 A303 RMK A01 T00151134  RH  032%=      5-min Rain = 0
KCR1 130009Z 06007KT 01/M14 A303 RMK A01 T00141135  RH  032%=      5-min Rain = 0
KCR1 130010Z 06007KT 01/M14 A303 RMK A01 T00131136  RH  032%=      5-min Rain = 0
KCR1 130011Z 07007KT 01/M14 A303 RMK A01 T00131136  RH  032%=      5-min Rain = 0
KCR1 130012Z 07007KT 01/M14 A303 RMK A01 T00131136  RH  032%=      5-min Rain = 0
KCR1 130013Z 07007KT 01/M14 A303 RMK A01 T00131136  RH  032%=      5-min Rain = 0
KCR1 130014Z 07007KT 01/M14 A303 RMK A01 T00121136  RH  032%=      5-min Rain = 0
KCR1 130015Z 07007KT 01/M14 A303 RMK A01 T00111136  RH  032%=      5-min Rain = 0
KCR1 130016Z 07007KT 01/M14 A303 RMK A01 T00101137  RH  032%=      5-min Rain = 0
KCR1 130017Z 07007KT 01/M14 A303 RMK A01 T00091137  RH  033%=      5-min Rain = 0
KCR1 130018Z 07007KT 01/M14 A303 RMK A01 T00091136  RH  033%=      5-min Rain = 0
KCR1 130019Z 07007KT 01/M14 A303 RMK A01 T00081136  RH  033%=      5-min Rain = 0
KCR1 130020Z 07007KT 01/M14 A303 RMK A01 T00071136  RH  033%=      5-min Rain = 0
KCR1 130021Z 07007KT 01/M14 A303 RMK A01 T00071135  RH  033%=      5-min Rain = 0
KCR1 130022Z 07007KT 01/M14 A303 RMK A01 T00071136  RH  033%=      5-min Rain = 0
KCR1 130023Z 07007KT 01/M14 A303 RMK A01 T00071136  RH  034%=      5-min Rain = 0
KCR1 130024Z 07007KT 01/M14 A303 RMK A01 T00061136  RH  034%=      5-min Rain = 0
KCR1 130025Z 07007KT 01/M14 A303 RMK A01 T00061136  RH  034%=      5-min Rain = 0
KCR1 130026Z 07007KT 01/M14 A303 RMK A01 T00061136  RH  034%=      5-min Rain = 0
KCR1 130027Z 07007KT 01/M14 A303 RMK A01 T00051136  RH  034%=      5-min Rain = 0
KCR1 130028Z 07007KT 01/M14 A303 RMK A01 T00051136  RH  034%=      5-min Rain = 0
KCR1 130029Z 07007KT 00/M14 A303 RMK A01 T00041136  RH  034%=      5-min Rain = 0
KCR1 130030Z 07007KT 01/M14 A303 RMK A01 T00051135  RH  034%=      5-min Rain = 0
KCR1 130031Z 07007KT 00/M14 A303 RMK A01 T00041136  RH  034%=      5-min Rain = 0
KCR1 130032Z 07007KT 00/M14 A303 RMK A01 T00031136  RH  034%=      5-min Rain = 0
KCR1 130033Z 07007KT 00/M14 A303 RMK A01 T00031135  RH  035%=      5-min Rain = 0
KCR1 130034Z 07008KT 00/M14 A3031 RMK A01 T00031135  RH  035%=      5-min Rain = 0
KCR1 130035Z 07008KT 00/M14 A3031 RMK A01 T00031135  RH  035%=      5-min Rain = 0
KCR1 130036Z 07008KT 00/M14 A3031 RMK A01 T00021135  RH  035%=      5-min Rain = 0
KCR1 130037Z 07008KT 00/M14 A3031 RMK A01 T00021135  RH  035%=      5-min Rain = 0
KCR1 130038Z 07008KT 00/M14 A3031 RMK A01 T00021135  RH  035%=      5-min Rain = 0
KCR1 130039Z 07007KT 00/M14 A3031 RMK A01 T00021135  RH  035%=      5-min Rain = 0
KCR1 130040Z 07008KT 00/M14 A3031 RMK A01 T00031135  RH  035%=      5-min Rain = 0
KCR1 130041Z 07008KT 00/M13 A3031 RMK A01 T00031134  RH  035%=      5-min Rain = 0
KCR1 130042Z 07008KT 00/M14 A3031 RMK A01 T00021135  RH  035%=      5-min Rain = 0
KCR1 130043Z 07008KT 00/M13 A3031 RMK A01 T00031134  RH  035%=      5-min Rain = 0
KCR1 130044Z 07008KT 00/M14 A3031 RMK A01 T00021135  RH  035%=      5-min Rain = 0
KCR1 130045Z 07008KT 00/M13 A3031 RMK A01 T00021134  RH  035%=      5-min Rain = 0
KCR1 130046Z 07007KT 00/M13 A3031 RMK A01 T00021134  RH  035%=      5-min Rain = 0
KCR1 130047Z 07007KT 00/M13 A3031 RMK A01 T00021134  RH  035%=      5-min Rain = 0
KCR1 130048Z 07008KT 00/M14 A3031 RMK A01 T00021135  RH  035%=      5-min Rain = 0
KCR1 130049Z 07008KT 00/M13 A3031 RMK A01 T00011134  RH  035%=      5-min Rain = 0
KCR1 130050Z 07007KT 00/M13 A3031 RMK A01 T00011134  RH  035%=      5-min Rain = 0
KCR1 130051Z 07008KT 00/M13 A3031 RMK A01 T00011134  RH  035%=      5-min Rain = 0
KCR1 130052Z 07008KT 00/M13 A3031 RMK A01 T00011134  RH  036%=      5-min Rain = 0
KCR1 130053Z 07008KT 00/13 A3031 RMK A01 T00000-134  RH  036%=      5-min Rain = 0
KCR1 130054Z 07008KT 00/14 A3032 RMK A01 T00-00-135  RH  036%=      5-min Rain = 0
KCR1 130055Z 07008KT 00/13 A3032 RMK A01 T00-00-134  RH  036%=      5-min Rain = 0
KCR1 130056Z 07008KT 00/13 A3032 RMK A01 T00-00-134  RH  036%=      5-min Rain = 0
KCR1 130057Z 07008KT 00/14 A3032 RMK A01 T00-00-135  RH  035%=      5-min Rain = 0
KCR1 130058Z 07008KT M00/M14 A3032 RMK A01 T10011136  RH  035%=      5-min Rain = 0
KCR1 130059Z 07008KT M00/M14 A3032 RMK A01 T10011136  RH  036%=      5-min Rain = 0
KCR1 130100Z 07008KT M00/M14 A3032 RMK A01 T10011136  RH  036%=      5-min Rain = 0
KCR1 130101Z 07008KT M00/M14 A3032 RMK A01 T10011135  RH  036%=      5-min Rain = 0
KCR1 130102Z 07008KT M00/M14 A3032 RMK A01 T10021136  RH  036%=      5-min Rain = 0
KCR1 130103Z 07008KT M00/M14 A3032 RMK A01 T10021135  RH  036%=      5-min Rain = 0
KCR1 130104Z 07007KT M00/M14 A3032 RMK A01 T10011135  RH  036%=      5-min Rain = 0
KCR1 130105Z 07008KT M00/M14 A3033 RMK A01 T10011135  RH  036%=      5-min Rain = 0
KCR1 130106Z 07008KT M00/M14 A3033 RMK A01 T10021135  RH  036%=      5-min Rain = 0
KCR1 130107Z 07008KT M00/M14 A3033 RMK A01 T10011135  RH  036%=      5-min Rain = 0
KCR1 130108Z 07008KT M00/M14 A3033 RMK A01 T10021135  RH  036%=      5-min Rain = 0
KCR1 130109Z 07008KT M00/M14 A3033 RMK A01 T10021136  RH  036%=      5-min Rain = 0
KCR1 130110Z 07008KT M00/M14 A3033 RMK A01 T10021135  RH  036%=      5-min Rain = 0
KCR1 130111Z 07008KT M00/M14 A3033 RMK A01 T10031135  RH  036%=      5-min Rain = 0
KCR1 130112Z 07007KT M00/M14 A3033 RMK A01 T10031135  RH  036%=      5-min Rain = 0
KCR1 130113Z 07007KT M00/M14 A3033 RMK A01 T10031135  RH  036%=      5-min Rain = 0
KCR1 130114Z 06007KT M00/M14 A3033 RMK A01 T10031135  RH  036%=      5-min Rain = 0
KCR1 130115Z 06007KT M00/M14 A3033 RMK A01 T10031135  RH  036%=      5-min Rain = 0
KCR1 130116Z 06007KT M00/M14 A3034 RMK A01 T10031135  RH  036%=      5-min Rain = 0
KCR1 130117Z 06008KT M00/M14 A3034 RMK A01 T10041136  RH  036%=      5-min Rain = 0
KCR1 130118Z 06008KT M00/M14 A3034 RMK A01 T10041136  RH  036%=      5-min Rain = 0
KCR1 130119Z 06007KT M01/M14 A3034 RMK A01 T10051136  RH  036%=      5-min Rain = 0
KCR1 130120Z 06007KT M01/M14 A3034 RMK A01 T10051137  RH  036%=      5-min Rain = 0
KCR1 130121Z 06007KT M01/M14 A3034 RMK A01 T10061136  RH  037%=      5-min Rain = 0
KCR1 130122Z 06007KT M01/M14 A3034 RMK A01 T10061136  RH  037%=      5-min Rain = 0
KCR1 130123Z 06008KT M01/M14 A3034 RMK A01 T10061135  RH  037%=      5-min Rain = 0
KCR1 130124Z 06008KT M01/M14 A3034 RMK A01 T10061136  RH  037%=      5-min Rain = 0
KCR1 130125Z 06008KT M01/M14 A3034 RMK A01 T10061136  RH  037%=      5-min Rain = 0
KCR1 130126Z 06007KT M01/M14 A3034 RMK A01 T10071137  RH  037%=      5-min Rain = 0
KCR1 130127Z 06008KT M01/M14 A3034 RMK A01 T10081137  RH  037%=      5-min Rain = 0
KCR1 130128Z 06008KT M01/M14 A3034 RMK A01 T10081137  RH  037%=      5-min Rain = 0
KCR1 130129Z 06008KT M01/M14 A3034 RMK A01 T10081136  RH  037%=      5-min Rain = 0
KCR1 130130Z 06008KT M01/M14 A3034 RMK A01 T10081136  RH  037%=      5-min Rain = 0
KCR1 130131Z 06008KT M01/M14 A3034 RMK A01 T10081137  RH  037%=      5-min Rain = 0
KCR1 130132Z 06008KT M01/M14 A3034 RMK A01 T10081137  RH  037%=      5-min Rain = 0
KCR1 130133Z 06007KT M01/M14 A3034 RMK A01 T10081138  RH  037%=      5-min Rain = 0
KCR1 130134Z 06007KT M01/M14 A3034 RMK A01 T10091139  RH  037%=      5-min Rain = 0
KCR1 130135Z 06007KT M01/M14 A3034 RMK A01 T10111140  RH  037%=      5-min Rain = 0
KCR1 130136Z 06007KT M01/M14 A3034 RMK A01 T10121140  RH  037%=      5-min Rain = 0
KCR1 130137Z 06007KT M01/M14 A3034 RMK A01 T10121140  RH  037%=      5-min Rain = 0
KCR1 130138Z 06007KT M01/M14 A3034 RMK A01 T10131141  RH  037%=      5-min Rain = 0
KCR1 130139Z 06007KT M02/M14 A3034 RMK A01 T10151141  RH  037%=      5-min Rain = 0
KCR1 130140Z 06007KT M02/M14 A3034 RMK A01 T10151141  RH  038%=      5-min Rain = 0
KCR1 130141Z 06007KT M02/M14 A3034 RMK A01 T10161141  RH  038%=      5-min Rain = 0
KCR1 130142Z 06007KT M02/M14 A3034 RMK A01 T10151140  RH  038%=      5-min Rain = 0
KCR1 130143Z 06007KT M02/M14 A3034 RMK A01 T10151139  RH  038%=      5-min Rain = 0
KCR1 130144Z 06007KT M01/M14 A3034 RMK A01 T10141138  RH  038%=      5-min Rain = 0
KCR1 130145Z 06007KT M01/M14 A3034 RMK A01 T10141138  RH  038%=      5-min Rain = 0
KCR1 130146Z 06006KT M02/M14 A3034 RMK A01 T10151138  RH  038%=      5-min Rain = 0
KCR1 130147Z 07006KT M02/M14 A3034 RMK A01 T10151138  RH  038%=      5-min Rain = 0
KCR1 130148Z 07006KT M02/M14 A3034 RMK A01 T10151138  RH  039%=      5-min Rain = 0
KCR1 130149Z 07006KT M02/M14 A3034 RMK A01 T10151137  RH  039%=      5-min Rain = 0
KCR1 130150Z 06006KT M02/M14 A3034 RMK A01 T10151137  RH  039%=      5-min Rain = 0
KCR1 130151Z 06006KT M02/M14 A3034 RMK A01 T10161137  RH  039%=      5-min Rain = 0
KCR1 130152Z 06006KT M02/M14 A3035 RMK A01 T10161137  RH  039%=      5-min Rain = 0
KCR1 130153Z 06006KT M02/M14 A3035 RMK A01 T10171137  RH  039%=      5-min Rain = 0
KCR1 130154Z 06006KT M02/M14 A3035 RMK A01 T10171136  RH  040%=      5-min Rain = 0
KCR1 130155Z 06006KT M02/M14 A3035 RMK A01 T10171135  RH  040%=      5-min Rain = 0
KCR1 130156Z 06006KT M02/M14 A3035 RMK A01 T10171135  RH  040%=      5-min Rain = 0
KCR1 130157Z 06006KT M02/M14 A3035 RMK A01 T10171136  RH  040%=      5-min Rain = 0
KCR1 130158Z 06006KT M02/M14 A3035 RMK A01 T10171136  RH  040%=      5-min Rain = 0
KCR1 130159Z 06006KT M02/M14 A3035 RMK A01 T10171136  RH  040%=      5-min Rain = 0
KCR1 130200Z 06006KT M02/M14 A3035 RMK A01 T10181136  RH  040%=      5-min Rain = 0
KCR1 130201Z 06006KT M02/M14 A3035 RMK A01 T10181136  RH  040%=      5-min Rain = 0
KCR1 130202Z 06006KT M02/M14 A3035 RMK A01 T10181136  RH  040%=      5-min Rain = 0
KCR1 130203Z 06006KT M02/M14 A3035 RMK A01 T10181136  RH  040%=      5-min Rain = 0
KCR1 130204Z 06006KT M02/M14 A3036 RMK A01 T10191136  RH  040%=      5-min Rain = 0
KCR1 130205Z 06006KT M02/M14 A3036 RMK A01 T10191136  RH  040%=      5-min Rain = 0
KCR1 130206Z 06006KT M02/M14 A3036 RMK A01 T10201136  RH  040%=      5-min Rain = 0
KCR1 130207Z 06006KT M02/M14 A3036 RMK A01 T10201136  RH  041%=      5-min Rain = 0
KCR1 130208Z 05005KT M02/M14 A3036 RMK A01 T10201137  RH  041%=      5-min Rain = 0
KCR1 130209Z 05005KT M02/M14 A3036 RMK A01 T10201138  RH  040%=      5-min Rain = 0
KCR1 130210Z 05005KT M02/M14 A3036 RMK A01 T10211140  RH  040%=      5-min Rain = 0
KCR1 130211Z 05005KT M02/M14 A3036 RMK A01 T10211141  RH  039%=      5-min Rain = 0
KCR1 130212Z 05005KT M02/M14 A3036 RMK A01 T10221142  RH  039%=      5-min Rain = 0
KCR1 130213Z 05005KT M02/M14 A3036 RMK A01 T10231142  RH  040%=      5-min Rain = 0
KCR1 130214Z 05005KT M02/M14 A3036 RMK A01 T10241142  RH  040%=      5-min Rain = 0
KCR1 130215Z 05005KT M02/M14 A3036 RMK A01 T10241142  RH  040%=      5-min Rain = 0
KCR1 130216Z 06005KT M03/M14 A3036 RMK A01 T10251142  RH  040%=      5-min Rain = 0
KCR1 130217Z 06005KT M03/M14 A3036 RMK A01 T10251142  RH  040%=      5-min Rain = 0
KCR1 130218Z 06005KT M03/M14 A3036 RMK A01 T10251142  RH  040%=      5-min Rain = 0
KCR1 130219Z 06005KT M03/M14 A3036 RMK A01 T10251141  RH  040%=      5-min Rain = 0
KCR1 130220Z 06005KT M03/M14 A3036 RMK A01 T10251142  RH  040%=      5-min Rain = 0
KCR1 130221Z 07005KT M03/M14 A3036 RMK A01 T10251142  RH  040%=      5-min Rain = 0
KCR1 130222Z 07005KT M03/M14 A3036 RMK A01 T10251141  RH  041%=      5-min Rain = 0
KCR1 130223Z 06006KT M03/M14 A3036 RMK A01 T10261142  RH  040%=      5-min Rain = 0
KCR1 130224Z 06006KT M03/M14 A3037 RMK A01 T10261142  RH  041%=      5-min Rain = 0
KCR1 130225Z 06006KT M03/M14 A3037 RMK A01 T10261142  RH  041%=      5-min Rain = 0
KCR1 130226Z 06006KT M03/M14 A3037 RMK A01 T10271142  RH  041%=      5-min Rain = 0
KCR1 130227Z 06006KT M03/M14 A3037 RMK A01 T10281143  RH  041%=      5-min Rain = 0
KCR1 130228Z 06006KT M03/M14 A3037 RMK A01 T10281144  RH  040%=      5-min Rain = 0
KCR1 130229Z 06005KT M03/M14 A3037 RMK A01 T10291143  RH  041%=      5-min Rain = 0
KCR1 130230Z 06005KT M03/M14 A3037 RMK A01 T10291143  RH  041%=      5-min Rain = 0
KCR1 130231Z 06005KT M03/M14 A3037 RMK A01 T10291143  RH  041%=      5-min Rain = 0
KCR1 130232Z 06005KT M03/M14 A3037 RMK A01 T10281143  RH  041%=      5-min Rain = 0
KCR1 130233Z 06006KT M03/M14 A3037 RMK A01 T10281143  RH  041%=      5-min Rain = 0
KCR1 130234Z 06005KT M03/M14 A3037 RMK A01 T10281142  RH  041%=      5-min Rain = 0
KCR1 130235Z 05005KT M03/M14 A3037 RMK A01 T10281141  RH  041%=      5-min Rain = 0
KCR1 130236Z 05005KT M03/M14 A3038 RMK A01 T10261139  RH  042%=      5-min Rain = 0
KCR1 130237Z 05005KT M03/M14 A3038 RMK A01 T10261138  RH  042%=      5-min Rain = 0
KCR1 130238Z 05006KT M03/M14 A3038 RMK A01 T10251138  RH  041%=      5-min Rain = 0
KCR1 130239Z 05006KT M03/M14 A3038 RMK A01 T10251139  RH  041%=      5-min Rain = 0
KCR1 130240Z 05006KT M03/M14 A3038 RMK A01 T10251139  RH  041%=      5-min Rain = 0
KCR1 130241Z 05006KT M03/M14 A3038 RMK A01 T10251139  RH  041%=      5-min Rain = 0
KCR1 130242Z 06006KT M03/M14 A3038 RMK A01 T10251138  RH  041%=      5-min Rain = 0
KCR1 130243Z 06006KT M03/M14 A3038 RMK A01 T10251138  RH  042%=      5-min Rain = 0
KCR1 130244Z 06006KT M03/M14 A3038 RMK A01 T10251138  RH  042%=      5-min Rain = 0
KCR1 130245Z 05007KT M03/M14 A3038 RMK A01 T10261139  RH  041%=      5-min Rain = 0
KCR1 130246Z 06007KT M03/M14 A3038 RMK A01 T10271141  RH  041%=      5-min Rain = 0
KCR1 130247Z 05007KT M03/M14 A3038 RMK A01 T10281142  RH  041%=      5-min Rain = 0
KCR1 130248Z 05007KT M03/M14 A3038 RMK A01 T10291142  RH  042%=      5-min Rain = 0
KCR1 130249Z 06007KT M03/M14 A3038 RMK A01 T10301141  RH  042%=      5-min Rain = 0
KCR1 130250Z 06006KT M03/M14 A3038 RMK A01 T10301141  RH  042%=      5-min Rain = 0
KCR1 130251Z 06006KT M03/M14 A3038 RMK A01 T10301140  RH  042%=      5-min Rain = 0
KCR1 130252Z 06007KT M03/M14 A3038 RMK A01 T10301141  RH  042%=      5-min Rain = 0
KCR1 130253Z 06007KT M03/M14 A3039 RMK A01 T10301141  RH  042%=      5-min Rain = 0
KCR1 130254Z 06007KT M03/M14 A3039 RMK A01 T10311142  RH  042%=      5-min Rain = 0
KCR1 130255Z 06007KT M03/M14 A3039 RMK A01 T10321142  RH  042%=      5-min Rain = 0
KCR1 130256Z 05006KT M03/M14 A3039 RMK A01 T10321141  RH  042%=      5-min Rain = 0
KCR1 130257Z 06006KT M03/M14 A3039 RMK A01 T10311141  RH  043%=      5-min Rain = 0
KCR1 130258Z 05006KT M03/M14 A3039 RMK A01 T10311141  RH  043%=      5-min Rain = 0
KCR1 130259Z 06006KT M03/M14 A3039 RMK A01 T10321141  RH  043%=      5-min Rain = 0
KCR1 130300Z 06006KT M03/M14 A3039 RMK A01 T10321141  RH  043%=      5-min Rain = 0
KCR1 130301Z 06006KT M03/M14 A3039 RMK A01 T10321142  RH  043%=      5-min Rain = 0
KCR1 130302Z 06006KT M03/M14 A3039 RMK A01 T10321142  RH  043%=      5-min Rain = 0
KCR1 130303Z 05006KT M03/M14 A3039 RMK A01 T10331142  RH  043%=      5-min Rain = 0
KCR1 130304Z 05006KT M03/M14 A304 RMK A01 T10331142  RH  043%=      5-min Rain = 0
KCR1 130305Z 05006KT M03/M14 A304 RMK A01 T10331142  RH  043%=      5-min Rain = 0
KCR1 130306Z 05006KT M03/M14 A304 RMK A01 T10341142  RH  043%=      5-min Rain = 0
KCR1 130307Z 05006KT M03/M14 A304 RMK A01 T10331140  RH  043%=      5-min Rain = 0
KCR1 130308Z 05005KT M03/M14 A304 RMK A01 T10321140  RH  043%=      5-min Rain = 0
KCR1 130309Z 05006KT M03/M14 A304 RMK A01 T10331142  RH  043%=      5-min Rain = 0
KCR1 130310Z 05006KT M03/M14 A304 RMK A01 T10331141  RH  043%=      5-min Rain = 0
KCR1 130311Z 05006KT M03/M14 A304 RMK A01 T10331141  RH  043%=      5-min Rain = 0
KCR1 130312Z 06006KT M03/M14 A304 RMK A01 T10341142  RH  043%=      5-min Rain = 0
KCR1 130313Z 06006KT M04/M14 A304 RMK A01 T10351141  RH  044%=      5-min Rain = 0
KCR1 130314Z 06006KT M03/M14 A3039 RMK A01 T10341139  RH  044%=      5-min Rain = 0
KCR1 130315Z 07006KT M03/M14 A3039 RMK A01 T10341138  RH  044%=      5-min Rain = 0
KCR1 130316Z 07006KT M03/M14 A304 RMK A01 T10341139  RH  044%=      5-min Rain = 0
KCR1 130317Z 06006KT M03/M14 A304 RMK A01 T10341140  RH  043%=      5-min Rain = 0
KCR1 130318Z 06006KT M03/M14 A304 RMK A01 T10341141  RH  043%=      5-min Rain = 0
KCR1 130319Z 06006KT M04/M14 A304 RMK A01 T10351141  RH  044%=      5-min Rain = 0
KCR1 130320Z 07006KT M04/M14 A304 RMK A01 T10351140  RH  044%=      5-min Rain = 0
KCR1 130321Z 07006KT M04/M14 A304 RMK A01 T10351140  RH  044%=      5-min Rain = 0
KCR1 130322Z 07006KT M04/M14 A304 RMK A01 T10351140  RH  044%=      5-min Rain = 0
KCR1 130323Z 07006KT M04/M14 A304 RMK A01 T10361141  RH  044%=      5-min Rain = 0
KCR1 130324Z 07005KT M04/M14 A3039 RMK A01 T10361140  RH  044%=      5-min Rain = 0
KCR1 130325Z 07006KT M04/M14 A3039 RMK A01 T10361140  RH  044%=      5-min Rain = 0
KCR1 130326Z 07006KT M04/M14 A3039 RMK A01 T10361142  RH  044%=      5-min Rain = 0
KCR1 130327Z 07005KT M04/M14 A304 RMK A01 T10361142  RH  044%=      5-min Rain = 0
KCR1 130328Z 07005KT M04/M14 A304 RMK A01 T10361142  RH  044%=      5-min Rain = 0
KCR1 130329Z 06005KT M04/M14 A304 RMK A01 T10371143  RH  044%=      5-min Rain = 0
KCR1 130330Z 05005KT M04/M14 A304 RMK A01 T10371143  RH  044%=      5-min Rain = 0
KCR1 130331Z 05005KT M04/M14 A304 RMK A01 T10381144  RH  044%=      5-min Rain = 0
KCR1 130332Z 04005KT M04/M15 A3041 RMK A01 T10391145  RH  043%=      5-min Rain = 0
KCR1 130333Z 03006KT M04/M15 A3041 RMK A01 T10401146  RH  043%=      5-min Rain = 0
KCR1 130334Z 03006KT M04/M15 A3041 RMK A01 T10401146  RH  044%=      5-min Rain = 0
KCR1 130335Z 03006KT M04/M14 A3041 RMK A01 T10401144  RH  044%=      5-min Rain = 0
KCR1 130336Z 03006KT M04/M14 A3041 RMK A01 T10401142  RH  045%=      5-min Rain = 0
KCR1 130337Z 04006KT M04/M14 A3041 RMK A01 T10391140  RH  045%=      5-min Rain = 0
KCR1 130338Z 04006KT M04/M14 A3041 RMK A01 T10371138  RH  046%=      5-min Rain = 0
KCR1 130339Z 05006KT M04/M14 A3041 RMK A01 T10361135  RH  046%=      5-min Rain = 0
KCR1 130340Z 05007KT M04/M14 A3041 RMK A01 T10351135  RH  046%=      5-min Rain = 0
KCR1 130341Z 05007KT M03/M14 A3041 RMK A01 T10341136  RH  045%=      5-min Rain = 0
KCR1 130342Z 05007KT M03/M14 A3041 RMK A01 T10331136  RH  045%=      5-min Rain = 0
KCR1 130343Z 05007KT M03/M14 A3041 RMK A01 T10331137  RH  045%=      5-min Rain = 0
KCR1 130344Z 05006KT M03/M14 A3041 RMK A01 T10321137  RH  044%=      5-min Rain = 0
KCR1 130345Z 05006KT M03/M14 A3041 RMK A01 T10321137  RH  044%=      5-min Rain = 0
KCR1 130346Z 05007KT M03/M14 A3042 RMK A01 T10321137  RH  044%=      5-min Rain = 0
KCR1 130347Z 06007KT M03/M14 A3042 RMK A01 T10321137  RH  044%=      5-min Rain = 0
KCR1 130348Z 06007KT M03/M14 A3042 RMK A01 T10311136  RH  044%=      5-min Rain = 0
KCR1 130349Z 05007KT M03/M14 A3042 RMK A01 T10301135  RH  044%=      5-min Rain = 0
KCR1 130350Z 05007KT M03/M14 A3042 RMK A01 T10301136  RH  044%=      5-min Rain = 0
KCR1 130351Z 05007KT M03/M14 A3042 RMK A01 T10301136  RH  044%=      5-min Rain = 0
KCR1 130352Z 05006KT M03/M14 A3042 RMK A01 T10311137  RH  044%=      5-min Rain = 0
KCR1 130353Z 06006KT M03/M14 A3042 RMK A01 T10311137  RH  044%=      5-min Rain = 0
KCR1 130354Z 06006KT M03/M14 A3042 RMK A01 T10311137  RH  044%=      5-min Rain = 0
KCR1 130355Z 06006KT M03/M14 A3042 RMK A01 T10321138  RH  044%=      5-min Rain = 0
KCR1 130356Z 06007KT M03/M14 A3042 RMK A01 T10321138  RH  044%=      5-min Rain = 0
KCR1 130357Z 06006KT M03/M14 A3042 RMK A01 T10331139  RH  044%=      5-min Rain = 0
KCR1 130358Z 06006KT M03/M14 A3042 RMK A01 T10331139  RH  044%=      5-min Rain = 0
KCR1 130359Z 06006KT M03/M14 A3042 RMK A01 T10331138  RH  044%=      5-min Rain = 0
KCR1 130400Z 06007KT M03/M14 A3042 RMK A01 T10331138  RH  044%=      5-min Rain = 0
KCR1 130401Z 06006KT M03/M14 A3042 RMK A01 T10341139  RH  044%=      5-min Rain = 0
KCR1 130402Z 06006KT M03/M14 A3042 RMK A01 T10341138  RH  044%=      5-min Rain = 0
KCR1 130403Z 05006KT M03/M14 A3042 RMK A01 T10341138  RH  045%=      5-min Rain = 0
KCR1 130404Z 05006KT M03/M14 A3042 RMK A01 T10341138  RH  044%=      5-min Rain = 0
KCR1 130405Z 05007KT M04/M14 A3042 RMK A01 T10351139  RH  044%=      5-min Rain = 0
KCR1 130406Z 05008KT M04/M14 A3042 RMK A01 T10361141  RH  044%=      5-min Rain = 0
KCR1 130407Z 05008KT M04/M14 A3043 RMK A01 T10361140  RH  044%=      5-min Rain = 0
KCR1 130408Z 05008KT M04/M14 A3043 RMK A01 T10361139  RH  045%=      5-min Rain = 0
KCR1 130409Z 05008KT M04/M14 A3043 RMK A01 T10351138  RH  045%=      5-min Rain = 0
KCR1 130410Z 04008KT M03/M14 A3043 RMK A01 T10341137  RH  045%=      5-min Rain = 0
KCR1 130411Z 04008KT M03/M14 A3043 RMK A01 T10341137  RH  045%=      5-min Rain = 0
KCR1 130412Z 04008KT M03/M14 A3043 RMK A01 T10331136  RH  045%=      5-min Rain = 0
KCR1 130413Z 04008KT M03/M14 A3043 RMK A01 T10321136  RH  045%=      5-min Rain = 0
KCR1 130414Z 04008KT M03/M14 A3043 RMK A01 T10311135  RH  045%=      5-min Rain = 0
KCR1 130415Z 04008KT M03/M14 A3043 RMK A01 T10321135  RH  045%=      5-min Rain = 0
KCR1 130416Z 04008KT M03/M13 A3043 RMK A01 T10311134  RH  045%=      5-min Rain = 0
KCR1 130417Z 04008KT M03/M13 A3043 RMK A01 T10311134  RH  045%=      5-min Rain = 0
KCR1 130418Z 05008KT M03/M13 A3043 RMK A01 T10301134  RH  045%=      5-min Rain = 0
KCR1 130419Z 05008KT M03/M13 A3043 RMK A01 T10301134  RH  044%=      5-min Rain = 0
KCR1 130420Z 05008KT M03/M13 A3043 RMK A01 T10301134  RH  044%=      5-min Rain = 0
KCR1 130421Z 05008KT M03/M13 A3043 RMK A01 T10291134  RH  044%=      5-min Rain = 0
KCR1 130422Z 05009KT M03/M13 A3043 RMK A01 T10291134  RH  044%=      5-min Rain = 0
KCR1 130423Z 05009KT M03/M13 A3044 RMK A01 T10291134  RH  044%=      5-min Rain = 0
KCR1 130424Z 05009KT M03/M13 A3044 RMK A01 T10281134  RH  044%=      5-min Rain = 0
KCR1 130425Z 05009KT M03/M14 A3044 RMK A01 T10281135  RH  044%=      5-min Rain = 0
KCR1 130426Z 04009KT M03/M14 A3044 RMK A01 T10281135  RH  044%=      5-min Rain = 0
KCR1 130427Z 04009KT M03/M14 A3044 RMK A01 T10281135  RH  044%=      5-min Rain = 0
KCR1 130428Z 04009KT M03/M14 A3044 RMK A01 T10281135  RH  044%=      5-min Rain = 0
KCR1 130429Z 04009KT M03/M14 A3044 RMK A01 T10281135  RH  044%=      5-min Rain = 0
KCR1 130430Z 04008KT M03/M14 A3044 RMK A01 T10281135  RH  043%=      5-min Rain = 0
KCR1 130431Z 04008KT M03/M14 A3044 RMK A01 T10281135  RH  043%=      5-min Rain = 0
KCR1 130432Z 04007KT M03/M14 A3044 RMK A01 T10281136  RH  043%=      5-min Rain = 0
KCR1 130433Z 05007KT M03/M14 A3044 RMK A01 T10291136  RH  043%=      5-min Rain = 0
KCR1 130434Z 05006KT M03/M14 A3044 RMK A01 T10291135  RH  044%=      5-min Rain = 0
KCR1 130435Z 05007KT M03/M14 A3044 RMK A01 T10291135  RH  044%=      5-min Rain = 0
KCR1 130436Z 05007KT M03/M14 A3044 RMK A01 T10301135  RH  044%=      5-min Rain = 0
KCR1 130437Z 05006KT M03/M14 A3044 RMK A01 T10301135  RH  044%=      5-min Rain = 0
KCR1 130438Z 04007KT M03/M14 A3044 RMK A01 T10311136  RH  044%=      5-min Rain = 0
KCR1 130439Z 04007KT M03/M14 A3044 RMK A01 T10321136  RH  044%=      5-min Rain = 0
KCR1 130440Z 04007KT M03/M14 A3045 RMK A01 T10321136  RH  045%=      5-min Rain = 0
KCR1 130441Z 04007KT M03/M14 A3045 RMK A01 T10321135  RH  045%=      5-min Rain = 0
KCR1 130442Z 05008KT M03/M14 A3045 RMK A01 T10331135  RH  045%=      5-min Rain = 0
KCR1 130443Z 04007KT M03/M14 A3045 RMK A01 T10331136  RH  045%=      5-min Rain = 0
KCR1 130444Z 04007KT M03/M14 A3045 RMK A01 T10341136  RH  045%=      5-min Rain = 0
KCR1 130445Z 03006KT M04/M14 A3045 RMK A01 T10351136  RH  045%=      5-min Rain = 0
KCR1 130446Z 03006KT M04/M14 A3045 RMK A01 T10351136  RH  046%=      5-min Rain = 0
KCR1 130447Z 02005KT M04/M14 A3045 RMK A01 T10371136  RH  046%=      5-min Rain = 0
KCR1 130448Z 02005KT M04/M14 A3045 RMK A01 T10381137  RH  046%=      5-min Rain = 0
KCR1 130449Z 02005KT M04/M14 A3045 RMK A01 T10391138  RH  046%=      5-min Rain = 0
KCR1 130450Z 01005KT M04/M14 A3045 RMK A01 T10401137  RH  047%=      5-min Rain = 0
KCR1 130451Z 01005KT M04/M14 A3045 RMK A01 T10401138  RH  047%=      5-min Rain = 0
KCR1 130452Z 01005KT M04/M14 A3046 RMK A01 T10411137  RH  047%=      5-min Rain = 0
KCR1 130453Z 01005KT M04/M14 A3046 RMK A01 T10411136  RH  048%=      5-min Rain = 0
KCR1 130454Z 01005KT M04/M14 A3046 RMK A01 T10411136  RH  048%=      5-min Rain = 0
KCR1 130455Z 01006KT M04/M14 A3046 RMK A01 T10411136  RH  048%=      5-min Rain = 0
KCR1 130456Z 01006KT M04/M14 A3046 RMK A01 T10411135  RH  048%=      5-min Rain = 0
KCR1 130457Z 01006KT M04/M14 A3046 RMK A01 T10411135  RH  048%=      5-min Rain = 0
KCR1 130458Z 01007KT M04/M14 A3046 RMK A01 T10411136  RH  048%=      5-min Rain = 0
KCR1 130459Z 01007KT M04/M14 A3046 RMK A01 T10411136  RH  048%=      5-min Rain = 0
KCR1 130500Z 00007KT M04/M14 A3046 RMK A01 T10421137  RH  048%=      5-min Rain = 0
KCR1 130501Z 00008KT M04/M14 A3046 RMK A01 T10421136  RH  048%=      5-min Rain = 0
KCR1 130502Z 01008KT M04/M14 A3046 RMK A01 T10431136  RH  048%=      5-min Rain = 0
KCR1 130503Z 01008KT M04/M14 A3046 RMK A01 T10431136  RH  048%=      5-min Rain = 0
KCR1 130504Z 01008KT M04/M14 A3046 RMK A01 T10421135  RH  048%=      5-min Rain = 0
KCR1 130505Z 01008KT M04/M14 A3046 RMK A01 T10421135  RH  048%=      5-min Rain = 0
KCR1 130506Z 01008KT M04/M14 A3046 RMK A01 T10411135  RH  048%=      5-min Rain = 0
KCR1 130507Z 02008KT M04/M14 A3046 RMK A01 T10411135  RH  048%=      5-min Rain = 0
KCR1 130508Z 02008KT M04/M14 A3046 RMK A01 T10411135  RH  048%=      5-min Rain = 0
KCR1 130509Z 02008KT M04/M14 A3046 RMK A01 T10411135  RH  048%=      5-min Rain = 0
KCR1 130510Z 03008KT M04/M14 A3046 RMK A01 T10411135  RH  048%=      5-min Rain = 0
KCR1 130511Z 03009KT M04/M14 A3046 RMK A01 T10411135  RH  048%=      5-min Rain = 0
KCR1 130512Z 03009KT M04/M13 A3046 RMK A01 T10401134  RH  048%=      5-min Rain = 0
KCR1 130513Z 03008KT M04/M13 A3047 RMK A01 T10391134  RH  048%=      5-min Rain = 0
KCR1 130514Z 02008KT M04/M13 A3047 RMK A01 T10391134  RH  048%=      5-min Rain = 0
KCR1 130515Z 02009KT M04/M13 A3047 RMK A01 T10381133  RH  048%=      5-min Rain = 0
KCR1 130516Z 03009KT M04/M13 A3047 RMK A01 T10371133  RH  047%=      5-min Rain = 0
KCR1 130517Z 02008KT M04/M13 A3047 RMK A01 T10371133  RH  047%=      5-min Rain = 0
KCR1 130518Z 02008KT M04/M13 A3047 RMK A01 T10371134  RH  047%=      5-min Rain = 0
KCR1 130519Z 02008KT M04/M13 A3047 RMK A01 T10371134  RH  047%=      5-min Rain = 0
KCR1 130520Z 02006KT M04/M13 A3047 RMK A01 T10381134  RH  047%=      5-min Rain = 0
KCR1 130521Z 01007KT M04/M14 A3047 RMK A01 T10391136  RH  047%=      5-min Rain = 0
KCR1 130522Z 01006KT M04/M14 A3047 RMK A01 T10401136  RH  047%=      5-min Rain = 0
KCR1 130523Z 01007KT M04/M14 A3047 RMK A01 T10411136  RH  048%=      5-min Rain = 0
KCR1 130524Z 01006KT M04/M14 A3047 RMK A01 T10421136  RH  048%=      5-min Rain = 0
KCR1 130525Z 01007KT M04/M14 A3047 RMK A01 T10431135  RH  049%=      5-min Rain = 0
KCR1 130526Z 01007KT M04/M14 A3047 RMK A01 T10431135  RH  049%=      5-min Rain = 0
KCR1 130527Z 01007KT M04/M14 A3047 RMK A01 T10441135  RH  049%=      5-min Rain = 0
KCR1 130528Z 01007KT M04/M14 A3047 RMK A01 T10441136  RH  049%=      5-min Rain = 0
KCR1 130529Z 01007KT M04/M14 A3048 RMK A01 T10441135  RH  049%=      5-min Rain = 0
KCR1 130530Z 01007KT M05/M14 A3048 RMK A01 T10451136  RH  049%=      5-min Rain = 0
KCR1 130531Z 01007KT M05/M14 A3048 RMK A01 T10451136  RH  049%=      5-min Rain = 0
KCR1 130532Z 01007KT M05/M14 A3048 RMK A01 T10451136  RH  049%=      5-min Rain = 0
KCR1 130533Z 01007KT M05/M14 A3048 RMK A01 T10451136  RH  049%=      5-min Rain = 0
KCR1 130534Z 01007KT M05/M14 A3047 RMK A01 T10451136  RH  049%=      5-min Rain = 0
KCR1 130535Z 01007KT M05/M14 A3047 RMK A01 T10461136  RH  049%=      5-min Rain = 0
KCR1 130536Z 01007KT M05/M14 A3047 RMK A01 T10461136  RH  049%=      5-min Rain = 0
KCR1 130537Z 01007KT M05/M14 A3048 RMK A01 T10461137  RH  049%=      5-min Rain = 0
KCR1 130538Z 01007KT M05/M14 A3048 RMK A01 T10461137  RH  049%=      5-min Rain = 0
KCR1 130539Z 01007KT M05/M14 A3048 RMK A01 T10471137  RH  049%=      5-min Rain = 0
KCR1 130540Z 01007KT M05/M14 A3048 RMK A01 T10471136  RH  050%=      5-min Rain = 0
KCR1 130541Z 01007KT M05/M14 A3048 RMK A01 T10471135  RH  050%=      5-min Rain = 0
KCR1 130542Z 01007KT M05/M14 A3048 RMK A01 T10461135  RH  050%=      5-min Rain = 0
KCR1 130543Z 01007KT M05/M14 A3048 RMK A01 T10471135  RH  050%=      5-min Rain = 0
KCR1 130544Z 00007KT M05/M14 A3048 RMK A01 T10471135  RH  050%=      5-min Rain = 0
KCR1 130545Z 00007KT M05/M14 A3048 RMK A01 T10471136  RH  050%=      5-min Rain = 0
KCR1 130546Z 00006KT M05/M14 A3048 RMK A01 T10471135  RH  050%=      5-min Rain = 0
KCR1 130547Z 00006KT M05/M14 A3048 RMK A01 T10471135  RH  050%=      5-min Rain = 0
KCR1 130548Z 36006KT M05/M14 A3048 RMK A01 T10481136  RH  050%=      5-min Rain = 0
KCR1 130549Z 36006KT M05/M14 A3048 RMK A01 T10481136  RH  050%=      5-min Rain = 0
KCR1 130550Z 36006KT M05/M14 A3048 RMK A01 T10481135  RH  051%=      5-min Rain = 0
KCR1 130551Z 35006KT M05/M14 A3048 RMK A01 T10471135  RH  051%=      5-min Rain = 0
KCR1 130552Z 35005KT M05/M14 A3048 RMK A01 T10471135  RH  050%=      5-min Rain = 0
KCR1 130553Z 35005KT M05/M14 A3048 RMK A01 T10481136  RH  050%=      5-min Rain = 0
KCR1 130554Z 36005KT M05/M14 A3048 RMK A01 T10481135  RH  050%=      5-min Rain = 0
KCR1 130555Z 00006KT M05/M14 A3048 RMK A01 T10481136  RH  050%=      5-min Rain = 0
KCR1 130556Z 00006KT M05/M14 A3048 RMK A01 T10481136  RH  050%=      5-min Rain = 0
KCR1 130557Z 36006KT M05/M14 A3048 RMK A01 T10481136  RH  050%=      5-min Rain = 0
KCR1 130558Z 00006KT M05/M14 A3048 RMK A01 T10481136  RH  050%=      5-min Rain = 0
KCR1 130559Z 36006KT M05/M14 A3048 RMK A01 T10481136  RH  050%=      5-min Rain = 0

Page generated in 0.0766 seconds.